Time,TemperatureF,DewpointF,PressureIn,WindDirection,WindDirectionDegrees,WindSpeedMPH,WindSpeedGustMPH,Humidity,HourlyPrecipIn,Conditions,Clouds,dailyrainin,SoftwareType,DateUTC
2013-02-02 00:00:00,15.7,10.6,30.14,East,90,0.0,2.0,80,0.00,,,0.00,VWS V14.01,2013-02-02 05:00:00,
2013-02-02 00:05:00,15.7,10.6,30.14,SW,225,1.0,6.0,80,0.00,,,0.00,VWS V14.01,2013-02-02 05:05:00,
2013-02-02 00:10:00,15.3,10.2,30.15,SW,225,4.0,12.0,80,0.00,,,0.00,VWS V14.01,2013-02-02 05:10:00,
2013-02-02 00:15:00,14.4,9.4,30.15,WSW,248,3.0,9.0,80,0.00,,,0.00,VWS V14.01,2013-02-02 05:15:00,
2013-02-02 00:20:00,13.7,8.7,30.15,West,270,2.0,5.0,80,0.00,,,0.00,VWS V14.01,2013-02-02 05:20:00,
2013-02-02 00:25:00,13.4,8.7,30.15,West,270,2.0,6.0,81,0.00,,,0.00,VWS V14.01,2013-02-02 05:25:00,
2013-02-02 00:30:00,13.3,8.6,30.15,SW,225,2.0,6.0,81,0.00,,,0.00,VWS V14.01,2013-02-02 05:30:00,
2013-02-02 00:35:00,13.1,8.4,30.15,South,180,1.0,6.0,81,0.00,,,0.00,VWS V14.01,2013-02-02 05:35:00,
2013-02-02 00:40:00,13.0,8.3,30.16,SW,225,1.0,4.0,81,0.00,,,0.00,VWS V14.01,2013-02-02 05:40:00,
2013-02-02 00:45:00,13.0,8.3,30.16,SSE,158,1.0,4.0,81,0.00,,,0.00,VWS V14.01,2013-02-02 05:45:00,
2013-02-02 00:50:00,12.9,8.2,30.16,SSW,202,3.0,6.0,81,0.00,,,0.00,VWS V14.01,2013-02-02 05:50:00,
2013-02-02 00:55:00,12.8,7.8,30.17,SW,225,2.0,4.0,80,0.00,,,0.00,VWS V14.01,2013-02-02 05:55:00,
2013-02-02 01:00:00,12.8,7.8,30.17,SSE,158,1.0,4.0,80,0.00,,,0.00,VWS V14.01,2013-02-02 06:00:00,
2013-02-02 01:05:00,12.8,7.8,30.17,SSW,202,1.0,4.0,80,0.00,,,0.00,VWS V14.01,2013-02-02 06:05:00,
2013-02-02 01:10:00,12.8,7.8,30.17,WSW,248,3.0,6.0,80,0.00,,,0.00,VWS V14.01,2013-02-02 06:10:00,
2013-02-02 01:15:00,12.8,7.8,30.17,WSW,248,1.0,4.0,80,0.00,,,0.00,VWS V14.01,2013-02-02 06:15:00,
2013-02-02 01:20:00,12.9,7.6,30.17,SW,225,2.0,7.0,79,0.00,,,0.00,VWS V14.01,2013-02-02 06:20:00,
2013-02-02 01:25:00,12.9,7.3,30.17,SW,225,1.0,3.0,78,0.00,,,0.00,VWS V14.01,2013-02-02 06:25:00,
2013-02-02 01:30:00,12.9,7.1,30.18,SW,225,2.0,5.0,77,0.00,,,0.00,VWS V14.01,2013-02-02 06:30:00,
2013-02-02 01:35:00,12.8,7.0,30.18,WSW,248,1.0,4.0,77,0.00,,,0.00,VWS V14.01,2013-02-02 06:35:00,
2013-02-02 01:40:00,12.8,7.0,30.18,SW,225,2.0,10.0,77,0.00,,,0.00,VWS V14.01,2013-02-02 06:40:00,
2013-02-02 01:45:00,12.8,7.0,30.19,SSW,202,1.0,4.0,77,0.00,,,0.00,VWS V14.01,2013-02-02 06:45:00,
2013-02-02 01:50:00,12.9,6.8,30.19,WSW,248,1.0,4.0,76,0.00,,,0.00,VWS V14.01,2013-02-02 06:50:00,
2013-02-02 01:55:00,12.9,6.8,30.19,SW,225,0.0,3.0,76,0.00,,,0.00,VWS V14.01,2013-02-02 06:55:00,
2013-02-02 02:00:00,12.9,6.8,30.19,SW,225,1.0,4.0,76,0.00,,,0.00,VWS V14.01,2013-02-02 07:00:00,
2013-02-02 02:05:00,12.8,6.4,30.19,SW,225,2.0,7.0,75,0.00,,,0.00,VWS V14.01,2013-02-02 07:05:00,
2013-02-02 02:10:00,12.7,6.3,30.19,WSW,248,1.0,4.0,75,0.00,,,0.00,VWS V14.01,2013-02-02 07:10:00,
2013-02-02 02:15:00,12.6,6.2,30.19,SW,225,1.0,5.0,75,0.00,,,0.00,VWS V14.01,2013-02-02 07:15:00,
2013-02-02 02:20:00,12.6,6.2,30.19,SSW,202,1.0,5.0,75,0.00,,,0.00,VWS V14.01,2013-02-02 07:20:00,
2013-02-02 02:25:00,12.6,6.2,30.19,WSW,248,1.0,4.0,75,0.00,,,0.00,VWS V14.01,2013-02-02 07:25:00,
2013-02-02 02:30:00,12.6,5.9,30.19,SW,225,1.0,5.0,74,0.00,,,0.00,VWS V14.01,2013-02-02 07:30:00,
2013-02-02 02:35:00,12.6,6.2,30.20,SSE,158,0.0,4.0,75,0.00,,,0.00,VWS V14.01,2013-02-02 07:35:00,
2013-02-02 02:40:00,12.6,5.9,30.19,SW,225,2.0,7.0,74,0.00,,,0.00,VWS V14.01,2013-02-02 07:40:00,
2013-02-02 02:45:00,12.6,5.9,30.20,SSW,202,2.0,5.0,74,0.00,,,0.00,VWS V14.01,2013-02-02 07:45:00,
2013-02-02 02:50:00,12.7,6.0,30.20,SW,225,1.0,4.0,74,0.00,,,0.00,VWS V14.01,2013-02-02 07:50:00,
2013-02-02 02:55:00,12.7,5.7,30.19,SW,225,1.0,5.0,73,0.00,,,0.00,VWS V14.01,2013-02-02 07:55:00,
2013-02-02 03:00:00,12.7,5.7,30.20,WSW,248,2.0,6.0,73,0.00,,,0.00,VWS V14.01,2013-02-02 08:00:00,
2013-02-02 03:05:00,12.6,5.3,30.20,SW,225,2.0,7.0,72,0.00,,,0.00,VWS V14.01,2013-02-02 08:05:00,
2013-02-02 03:10:00,12.6,5.3,30.20,SW,225,1.0,4.0,72,0.00,,,0.00,VWS V14.01,2013-02-02 08:10:00,
2013-02-02 03:15:00,12.6,5.3,30.20,SW,225,1.0,4.0,72,0.00,,,0.00,VWS V14.01,2013-02-02 08:15:00,
2013-02-02 03:20:00,12.5,5.2,30.20,SW,225,1.0,4.0,72,0.00,,,0.00,VWS V14.01,2013-02-02 08:20:00,
2013-02-02 03:25:00,12.6,5.3,30.20,SW,225,1.0,4.0,72,0.00,,,0.00,VWS V14.01,2013-02-02 08:25:00,
2013-02-02 03:30:00,12.5,5.2,30.20,SW,225,1.0,4.0,72,0.00,,,0.00,VWS V14.01,2013-02-02 08:30:00,
2013-02-02 03:35:00,12.5,5.2,30.20,SW,225,0.0,2.0,72,0.00,,,0.00,VWS V14.01,2013-02-02 08:35:00,
2013-02-02 03:40:00,12.4,5.1,30.20,SW,225,1.0,3.0,72,0.00,,,0.00,VWS V14.01,2013-02-02 08:40:00,
2013-02-02 03:45:00,12.4,5.1,30.21,SSW,202,0.0,2.0,72,0.00,,,0.00,VWS V14.01,2013-02-02 08:45:00,
2013-02-02 03:50:00,12.3,5.0,30.21,SSW,202,0.0,0.0,72,0.00,,,0.00,VWS V14.01,2013-02-02 08:50:00,
2013-02-02 03:55:00,12.3,5.0,30.20,SSW,202,0.0,2.0,72,0.00,,,0.00,VWS V14.01,2013-02-02 08:55:00,
2013-02-02 04:00:00,12.3,5.0,30.20,SSW,202,0.0,2.0,72,0.00,,,0.00,VWS V14.01,2013-02-02 09:00:00,
2013-02-02 04:05:00,12.3,5.0,30.21,SSW,202,0.0,2.0,72,0.00,,,0.00,VWS V14.01,2013-02-02 09:05:00,
2013-02-02 04:10:00,12.2,4.9,30.21,SSW,202,0.0,1.0,72,0.00,,,0.00,VWS V14.01,2013-02-02 09:10:00,
2013-02-02 04:15:00,12.2,4.9,30.21,SSW,202,0.0,3.0,72,0.00,,,0.00,VWS V14.01,2013-02-02 09:15:00,
2013-02-02 04:20:00,12.1,4.8,30.21,SSW,202,0.0,2.0,72,0.00,,,0.00,VWS V14.01,2013-02-02 09:20:00,
2013-02-02 04:25:00,11.9,4.6,30.21,SSW,202,0.0,0.0,72,0.00,,,0.00,VWS V14.01,2013-02-02 09:25:00,
2013-02-02 04:30:00,11.9,4.9,30.21,SSW,202,0.0,0.0,73,0.00,,,0.00,VWS V14.01,2013-02-02 09:30:00,
2013-02-02 04:35:00,11.8,4.8,30.21,SSW,202,0.0,0.0,73,0.00,,,0.00,VWS V14.01,2013-02-02 09:35:00,
2013-02-02 04:40:00,11.8,4.8,30.21,SSW,202,0.0,0.0,73,0.00,,,0.00,VWS V14.01,2013-02-02 09:40:00,
2013-02-02 04:45:00,11.8,5.1,30.21,SSW,202,0.0,0.0,74,0.00,,,0.00,VWS V14.01,2013-02-02 09:45:00,
2013-02-02 04:50:00,11.8,4.8,30.21,SSW,202,0.0,0.0,73,0.00,,,0.00,VWS V14.01,2013-02-02 09:50:00,
2013-02-02 04:55:00,11.7,4.7,30.21,SSW,202,0.0,1.0,73,0.00,,,0.00,VWS V14.01,2013-02-02 09:55:00,
2013-02-02 05:00:00,11.6,4.6,30.21,SSW,202,0.0,1.0,73,0.00,,,0.00,VWS V14.01,2013-02-02 10:00:00,
2013-02-02 05:05:00,11.4,4.7,30.21,SSW,202,0.0,2.0,74,0.00,,,0.00,VWS V14.01,2013-02-02 10:05:00,
2013-02-02 05:10:00,11.3,4.6,30.21,SSW,202,0.0,0.0,74,0.00,,,0.00,VWS V14.01,2013-02-02 10:10:00,
2013-02-02 05:15:00,11.2,4.5,30.21,SSW,202,0.0,2.0,74,0.00,,,0.00,VWS V14.01,2013-02-02 10:15:00,
2013-02-02 05:20:00,11.1,4.4,30.21,SSW,202,0.0,2.0,74,0.00,,,0.00,VWS V14.01,2013-02-02 10:20:00,
2013-02-02 05:25:00,11.0,4.6,30.21,SSW,202,0.0,0.0,75,0.00,,,0.00,VWS V14.01,2013-02-02 10:25:00,
2013-02-02 05:30:00,10.9,4.6,30.21,North,0,1.0,4.0,75,0.00,,,0.00,VWS V14.01,2013-02-02 10:30:00,
2013-02-02 05:35:00,10.9,4.6,30.20,North,0,0.0,2.0,75,0.00,,,0.00,VWS V14.01,2013-02-02 10:35:00,
2013-02-02 05:40:00,10.9,4.6,30.20,North,0,0.0,2.0,75,0.00,,,0.00,VWS V14.01,2013-02-02 10:40:00,
2013-02-02 05:45:00,10.8,4.4,30.20,North,0,0.0,1.0,75,0.00,,,0.00,VWS V14.01,2013-02-02 10:45:00,
2013-02-02 05:50:00,10.7,4.3,30.20,North,0,1.0,5.0,75,0.00,,,0.00,VWS V14.01,2013-02-02 10:50:00,
2013-02-02 05:55:00,10.7,4.6,30.20,NE,45,1.0,4.0,76,0.00,,,0.00,VWS V14.01,2013-02-02 10:55:00,
2013-02-02 06:00:00,10.7,4.9,30.20,North,0,1.0,4.0,77,0.00,,,0.00,VWS V14.01,2013-02-02 11:00:00,
2013-02-02 06:05:00,10.8,5.0,30.20,NE,45,0.0,2.0,77,0.00,,,0.00,VWS V14.01,2013-02-02 11:05:00,
2013-02-02 06:10:00,10.8,5.0,30.20,East,90,2.0,6.0,77,0.00,,,0.00,VWS V14.01,2013-02-02 11:10:00,
2013-02-02 06:15:00,10.9,5.4,30.20,East,90,3.0,5.0,78,0.00,,,0.00,VWS V14.01,2013-02-02 11:15:00,
2013-02-02 06:20:00,10.9,5.4,30.20,East,90,2.0,6.0,78,0.00,,,0.00,VWS V14.01,2013-02-02 11:20:00,
2013-02-02 06:25:00,10.9,5.4,30.20,East,90,1.0,4.0,78,0.00,,,0.00,VWS V14.01,2013-02-02 11:25:00,
2013-02-02 06:30:00,10.8,5.3,30.20,East,90,2.0,6.0,78,0.00,,,0.00,VWS V14.01,2013-02-02 11:30:00,
2013-02-02 06:35:00,10.9,5.4,30.20,East,90,3.0,7.0,78,0.00,,,0.00,VWS V14.01,2013-02-02 11:35:00,
2013-02-02 06:40:00,11.0,5.5,30.20,ENE,68,3.0,9.0,78,0.00,,,0.00,VWS V14.01,2013-02-02 11:40:00,
2013-02-02 06:45:00,11.2,5.7,30.20,ENE,68,2.0,5.0,78,0.00,,,0.00,VWS V14.01,2013-02-02 11:45:00,
2013-02-02 06:50:00,11.2,6.0,30.21,ESE,112,3.0,7.0,79,0.00,,,0.00,VWS V14.01,2013-02-02 11:50:00,
2013-02-02 06:55:00,11.1,5.6,30.21,NNW,338,2.0,6.0,78,0.00,,,0.00,VWS V14.01,2013-02-02 11:55:00,
2013-02-02 07:00:00,11.0,5.5,30.21,NNE,22,2.0,4.0,78,0.00,,,0.00,VWS V14.01,2013-02-02 12:00:00,
2013-02-02 07:05:00,10.9,5.1,30.21,North,0,1.0,4.0,77,0.00,,,0.00,VWS V14.01,2013-02-02 12:05:00,
2013-02-02 07:10:00,10.8,5.0,30.21,NW,315,1.0,4.0,77,0.00,,,0.00,VWS V14.01,2013-02-02 12:10:00,
2013-02-02 07:15:00,10.7,4.9,30.21,NNW,338,3.0,9.0,77,0.00,,,0.00,VWS V14.01,2013-02-02 12:15:00,
2013-02-02 07:20:00,10.7,5.2,30.21,NE,45,2.0,6.0,78,0.00,,,0.00,VWS V14.01,2013-02-02 12:20:00,
2013-02-02 07:25:00,10.7,5.2,30.21,NNE,22,1.0,4.0,78,0.00,,,0.00,VWS V14.01,2013-02-02 12:25:00,
2013-02-02 07:30:00,10.8,5.3,30.21,East,90,4.0,9.0,78,0.00,,,0.00,VWS V14.01,2013-02-02 12:30:00,
2013-02-02 07:35:00,10.8,5.0,30.21,East,90,2.0,5.0,77,0.00,,,0.00,VWS V14.01,2013-02-02 12:35:00,
2013-02-02 07:40:00,10.9,5.1,30.22,East,90,2.0,6.0,77,0.00,,,0.00,VWS V14.01,2013-02-02 12:40:00,
2013-02-02 07:45:00,11.0,4.9,30.21,East,90,0.0,3.0,76,0.00,,,0.00,VWS V14.01,2013-02-02 12:45:00,
2013-02-02 07:50:00,11.0,4.6,30.22,East,90,2.0,5.0,75,0.00,,,0.00,VWS V14.01,2013-02-02 12:50:00,
2013-02-02 07:55:00,11.2,4.8,30.21,East,90,3.0,6.0,75,0.00,,,0.00,VWS V14.01,2013-02-02 12:55:00,
2013-02-02 08:00:00,11.4,4.4,30.21,East,90,4.0,10.0,73,0.00,,,0.00,VWS V14.01,2013-02-02 13:00:00,
2013-02-02 08:05:00,11.6,4.3,30.22,East,90,5.0,11.0,72,0.00,,,0.00,VWS V14.01,2013-02-02 13:05:00,
2013-02-02 08:10:00,11.9,4.0,30.22,ENE,68,4.0,8.0,70,0.00,,,0.00,VWS V14.01,2013-02-02 13:10:00,
2013-02-02 08:15:00,12.0,4.1,30.22,East,90,1.0,4.0,70,0.00,,,0.00,VWS V14.01,2013-02-02 13:15:00,
2013-02-02 08:20:00,12.2,4.0,30.23,ENE,68,2.0,6.0,69,0.00,,,0.00,VWS V14.01,2013-02-02 13:20:00,
2013-02-02 08:25:00,12.3,4.1,30.22,East,90,1.0,5.0,69,0.00,,,0.00,VWS V14.01,2013-02-02 13:25:00,
2013-02-02 08:30:00,12.4,3.5,30.22,East,90,2.0,5.0,67,0.00,,,0.00,VWS V14.01,2013-02-02 13:30:00,
2013-02-02 08:35:00,15.4,5.4,30.20,East,91,6.0,9.0,64,0.00,,,0.00,VWS V14.01,2013-02-02 13:35:00,
2013-02-02 08:40:00,12.4,3.5,30.22,East,90,2.0,5.0,67,0.00,,,0.00,VWS V14.01,2013-02-02 13:40:00,
2013-02-02 08:45:00,12.7,3.5,30.21,ESE,121,3.0,6.0,66,0.00,,,0.00,VWS V14.01,2013-02-02 13:45:00,
2013-02-02 08:50:00,12.9,3.4,30.21,East,87,3.0,5.0,65,0.00,,,0.00,VWS V14.01,2013-02-02 13:50:00,
2013-02-02 08:51:00,12.9,3.4,30.22,East,87,1.0,2.0,65,0.00,,,0.00,VWS V14.01,2013-02-02 13:51:00,
2013-02-02 08:55:00,13.1,3.9,30.21,East,90,3.0,9.0,66,0.00,,,0.00,VWS V14.01,2013-02-02 13:55:00,
2013-02-02 08:56:00,13.1,3.9,30.21,East,90,3.0,3.0,66,0.00,,,0.00,VWS V14.01,2013-02-02 13:56:00,
2013-02-02 09:00:00,13.3,3.8,30.21,East,86,2.0,7.0,65,0.00,,,0.00,VWS V14.01,2013-02-02 14:00:00,
2013-02-02 09:01:00,13.4,3.8,30.21,East,88,3.0,3.0,65,0.00,,,0.00,VWS V14.01,2013-02-02 14:01:00,
2013-02-02 09:05:00,13.5,3.9,30.21,ENE,61,3.0,8.0,65,0.00,,,0.00,VWS V14.01,2013-02-02 14:05:00,
2013-02-02 09:06:00,13.5,3.9,30.21,East,95,5.0,7.0,65,0.00,,,0.00,VWS V14.01,2013-02-02 14:06:00,
2013-02-02 09:10:00,13.6,4.0,30.21,ENE,66,1.0,7.0,65,0.00,,,0.00,VWS V14.01,2013-02-02 14:10:00,
2013-02-02 09:11:00,13.5,3.9,30.21,ENE,66,1.0,3.0,65,0.00,,,0.00,VWS V14.01,2013-02-02 14:11:00,
2013-02-02 09:15:00,13.8,4.6,30.21,ENE,74,1.0,7.0,66,0.00,,,0.00,VWS V14.01,2013-02-02 14:15:00,
2013-02-02 09:16:00,13.8,4.2,30.21,ENE,74,0.0,1.0,65,0.00,,,0.00,VWS V14.01,2013-02-02 14:16:00,
2013-02-02 09:17:00,13.9,4.7,30.20,ENE,74,2.0,3.0,66,0.00,,,0.00,VWS V14.01,2013-02-02 14:17:00,
2013-02-02 09:20:00,14.1,4.5,30.20,SSE,147,2.0,8.0,65,0.00,,,0.00,VWS V14.01,2013-02-02 14:20:00,
2013-02-02 09:21:00,14.2,4.3,30.20,SE,146,0.0,3.0,64,0.00,,,0.00,VWS V14.01,2013-02-02 14:21:00,
2013-02-02 09:22:00,14.3,4.7,30.20,ESE,102,3.0,5.0,65,0.00,,,0.00,VWS V14.01,2013-02-02 14:22:00,
2013-02-02 09:25:00,14.5,4.9,30.20,SE,130,2.0,5.0,65,0.00,,,0.00,VWS V14.01,2013-02-02 14:25:00,
2013-02-02 09:26:00,14.5,4.9,30.20,ESE,113,4.0,4.0,65,0.00,,,0.00,VWS V14.01,2013-02-02 14:26:00,
2013-02-02 09:27:00,14.6,5.0,30.20,ESE,112,2.0,4.0,65,0.00,,,0.00,VWS V14.01,2013-02-02 14:27:00,
2013-02-02 09:30:00,15.0,5.4,30.21,East,89,3.0,10.0,65,0.00,,,0.00,VWS V14.01,2013-02-02 14:30:00,
2013-02-02 09:31:00,15.0,5.4,30.21,East,89,2.0,3.0,65,0.00,,,0.00,VWS V14.01,2013-02-02 14:31:00,
2013-02-02 09:32:00,15.1,5.5,30.21,ESE,102,3.0,3.0,65,0.00,,,0.00,VWS V14.01,2013-02-02 14:32:00,
2013-02-02 09:35:00,15.4,5.4,30.20,East,91,6.0,9.0,64,0.00,,,0.00,VWS V14.01,2013-02-02 14:35:00,
2013-02-02 09:36:00,15.4,5.4,30.20,ENE,61,2.0,6.0,64,0.00,,,0.00,VWS V14.01,2013-02-02 14:36:00,
2013-02-02 09:37:00,15.5,5.5,30.20,East,80,6.0,9.0,64,0.00,,,0.00,VWS V14.01,2013-02-02 14:37:00,
2013-02-02 09:40:00,15.6,5.3,30.20,ESE,119,3.0,10.0,63,0.00,,,0.00,VWS V14.01,2013-02-02 14:40:00,
2013-02-02 09:41:00,15.6,5.3,30.20,ENE,78,3.0,5.0,63,0.00,,,0.00,VWS V14.01,2013-02-02 14:41:00,
2013-02-02 09:42:00,15.7,5.4,30.20,East,98,7.0,8.0,63,0.00,,,0.00,VWS V14.01,2013-02-02 14:42:00,
2013-02-02 09:45:00,15.6,5.3,30.20,ESE,106,2.0,11.0,63,0.00,,,0.00,VWS V14.01,2013-02-02 14:45:00,
2013-02-02 09:46:00,15.6,5.3,30.20,East,94,7.0,10.0,63,0.00,,,0.00,VWS V14.01,2013-02-02 14:46:00,
2013-02-02 09:47:00,15.6,5.3,30.20,East,95,5.0,10.0,63,0.00,,,0.00,VWS V14.01,2013-02-02 14:47:00,
2013-02-02 09:48:00,15.5,5.2,30.20,East,88,6.0,10.0,63,0.00,,,0.00,VWS V14.01,2013-02-02 14:48:00,
2013-02-02 09:50:00,15.5,5.5,30.20,East,93,6.0,10.0,64,0.00,,,0.00,VWS V14.01,2013-02-02 14:50:00,
2013-02-02 09:51:00,15.5,5.5,30.20,East,86,6.0,10.0,64,0.00,,,0.00,VWS V14.01,2013-02-02 14:51:00,
2013-02-02 09:52:00,15.5,5.5,30.20,East,92,5.0,10.0,64,0.00,,,0.00,VWS V14.01,2013-02-02 14:52:00,
2013-02-02 09:53:00,15.5,5.5,30.20,East,86,5.0,10.0,64,0.00,,,0.00,VWS V14.01,2013-02-02 14:53:00,
2013-02-02 09:55:00,15.5,5.5,30.20,ESE,104,1.0,11.0,64,0.00,,,0.00,VWS V14.01,2013-02-02 14:55:00,
2013-02-02 09:56:00,15.5,5.5,30.20,ESE,104,0.0,1.0,64,0.00,,,0.00,VWS V14.01,2013-02-02 14:56:00,
2013-02-02 09:57:00,15.6,5.9,30.20,ESE,104,3.0,4.0,65,0.00,,,0.00,VWS V14.01,2013-02-02 14:57:00,
2013-02-02 09:58:00,15.7,6.0,30.20,East,98,3.0,4.0,65,0.00,,,0.00,VWS V14.01,2013-02-02 14:58:00,
2013-02-02 10:00:00,16.0,6.0,30.20,East,79,2.0,9.0,64,0.00,,,0.00,VWS V14.01,2013-02-02 15:00:00,
2013-02-02 10:01:00,16.0,6.0,30.20,East,94,11.0,11.0,64,0.00,,,0.00,VWS V14.01,2013-02-02 15:01:00,
2013-02-02 10:02:00,16.1,6.1,30.20,East,86,3.0,11.0,64,0.00,,,0.00,VWS V14.01,2013-02-02 15:02:00,
2013-02-02 10:03:00,16.1,5.7,30.20,ENE,76,3.0,11.0,63,0.00,,,0.00,VWS V14.01,2013-02-02 15:03:00,
2013-02-02 10:05:00,16.3,5.9,30.20,East,90,10.0,12.0,63,0.00,,,0.00,VWS V14.01,2013-02-02 15:05:00,
2013-02-02 10:06:00,16.4,6.0,30.19,ENE,64,3.0,10.0,63,0.00,,,0.00,VWS V14.01,2013-02-02 15:06:00,
2013-02-02 10:07:00,16.4,6.0,30.20,East,99,10.0,10.0,63,0.00,,,0.00,VWS V14.01,2013-02-02 15:07:00,
2013-02-02 10:08:00,16.5,6.5,30.19,ESE,102,9.0,10.0,64,0.00,,,0.00,VWS V14.01,2013-02-02 15:08:00,
2013-02-02 10:10:00,16.7,6.3,30.19,East,82,6.0,11.0,63,0.00,,,0.00,VWS V14.01,2013-02-02 15:10:00,
2013-02-02 10:11:00,16.7,6.3,30.19,NE,55,4.0,6.0,63,0.00,,,0.00,VWS V14.01,2013-02-02 15:11:00,
2013-02-02 10:12:00,16.7,6.3,30.19,NE,41,3.0,11.0,63,0.00,,,0.00,VWS V14.01,2013-02-02 15:12:00,
2013-02-02 10:13:00,16.7,6.3,30.19,East,94,8.0,11.0,63,0.00,,,0.00,VWS V14.01,2013-02-02 15:13:00,
2013-02-02 10:15:00,16.7,6.3,30.19,ESE,102,9.0,12.0,63,0.00,,,0.00,VWS V14.01,2013-02-02 15:15:00,
2013-02-02 10:16:00,16.6,5.9,30.19,East,87,5.0,11.0,62,0.00,,,0.00,VWS V14.01,2013-02-02 15:16:00,
2013-02-02 10:17:00,16.6,6.2,30.19,East,94,5.0,11.0,63,0.00,,,0.00,VWS V14.01,2013-02-02 15:17:00,
2013-02-02 10:18:00,16.5,6.1,30.19,ENE,70,5.0,11.0,63,0.00,,,0.00,VWS V14.01,2013-02-02 15:18:00,
2013-02-02 10:20:00,16.6,6.2,30.19,ESE,111,7.0,11.0,63,0.00,,,0.00,VWS V14.01,2013-02-02 15:20:00,
2013-02-02 10:22:00,16.6,6.2,30.19,East,83,9.0,12.0,63,0.00,,,0.00,VWS V14.01,2013-02-02 15:22:00,
2013-02-02 10:23:00,16.6,6.2,30.19,ESE,103,9.0,12.0,63,0.00,,,0.00,VWS V14.01,2013-02-02 15:23:00,
2013-02-02 10:25:00,16.4,5.7,30.19,East,98,6.0,12.0,62,0.00,,,0.00,VWS V14.01,2013-02-02 15:25:00,
2013-02-02 10:27:00,16.4,6.0,30.19,East,94,11.0,13.0,63,0.00,,,0.00,VWS V14.01,2013-02-02 15:27:00,
2013-02-02 10:28:00,16.3,5.6,30.19,NE,37,2.0,13.0,62,0.00,,,0.00,VWS V14.01,2013-02-02 15:28:00,
2013-02-02 10:30:00,16.4,6.0,30.19,East,94,10.0,13.0,63,0.00,,,0.00,VWS V14.01,2013-02-02 15:30:00,
2013-02-02 10:32:00,16.4,5.7,30.19,East,84,10.0,12.0,62,0.00,,,0.00,VWS V14.01,2013-02-02 15:32:00,
2013-02-02 10:33:00,16.4,6.0,30.19,East,88,7.0,12.0,63,0.00,,,0.00,VWS V14.01,2013-02-02 15:33:00,
2013-02-02 10:34:00,16.5,6.1,30.19,East,87,13.0,14.0,63,0.00,,,0.00,VWS V14.01,2013-02-02 15:34:00,
2013-02-02 10:35:00,16.5,6.1,30.19,ESE,111,10.0,14.0,63,0.00,,,0.00,VWS V14.01,2013-02-02 15:35:00,
2013-02-02 10:37:00,16.5,5.8,30.19,East,88,6.0,11.0,62,0.00,,,0.00,VWS V14.01,2013-02-02 15:37:00,
2013-02-02 10:38:00,16.5,5.8,30.19,ESE,119,5.0,11.0,62,0.00,,,0.00,VWS V14.01,2013-02-02 15:38:00,
2013-02-02 10:39:00,16.6,6.2,30.19,NNE,30,3.0,11.0,63,0.00,,,0.00,VWS V14.01,2013-02-02 15:39:00,
2013-02-02 10:40:00,16.7,6.3,30.19,East,91,5.0,11.0,63,0.00,,,0.00,VWS V14.01,2013-02-02 15:40:00,
2013-02-02 10:42:00,16.7,6.0,30.19,East,79,13.0,13.0,62,0.00,,,0.00,VWS V14.01,2013-02-02 15:42:00,
2013-02-02 10:43:00,16.8,6.1,30.19,East,99,9.0,15.0,62,0.00,,,0.00,VWS V14.01,2013-02-02 15:43:00,
2013-02-02 10:44:00,16.8,6.1,30.19,East,98,10.0,15.0,62,0.00,,,0.00,VWS V14.01,2013-02-02 15:44:00,
2013-02-02 10:45:00,16.8,6.1,30.19,East,82,5.0,15.0,62,0.00,,,0.00,VWS V14.01,2013-02-02 15:45:00,
2013-02-02 10:47:00,16.9,6.2,30.18,ENE,69,4.0,13.0,62,0.00,,,0.00,VWS V14.01,2013-02-02 15:47:00,
2013-02-02 10:48:00,17.0,6.2,30.18,ESE,103,10.0,13.0,62,0.00,,,0.00,VWS V14.01,2013-02-02 15:48:00,
2013-02-02 10:49:00,17.0,6.2,30.18,East,90,5.0,13.0,62,0.00,,,0.00,VWS V14.01,2013-02-02 15:49:00,
2013-02-02 10:50:00,17.1,6.3,30.18,ESE,122,5.0,14.0,62,0.00,,,0.00,VWS V14.01,2013-02-02 15:50:00,
2013-02-02 10:52:00,17.2,6.4,30.18,East,86,6.0,12.0,62,0.00,,,0.00,VWS V14.01,2013-02-02 15:52:00,
2013-02-02 10:53:00,17.2,6.4,30.18,East,95,6.0,12.0,62,0.00,,,0.00,VWS V14.01,2013-02-02 15:53:00,
2013-02-02 10:54:00,17.3,6.5,30.18,ENE,76,3.0,12.0,62,0.00,,,0.00,VWS V14.01,2013-02-02 15:54:00,
2013-02-02 10:55:00,17.4,6.6,30.18,NNE,19,2.0,12.0,62,0.00,,,0.00,VWS V14.01,2013-02-02 15:55:00,
2013-02-02 10:57:00,17.6,7.2,30.18,NNW,348,3.0,7.0,63,0.00,,,0.00,VWS V14.01,2013-02-02 15:57:00,
2013-02-02 10:58:00,17.7,7.3,30.18,NNW,334,1.0,7.0,63,0.00,,,0.00,VWS V14.01,2013-02-02 15:58:00,
2013-02-02 10:59:00,17.7,7.3,30.18,East,90,2.0,7.0,63,0.00,,,0.00,VWS V14.01,2013-02-02 15:59:00,
2013-02-02 11:00:00,17.9,7.8,30.18,East,94,7.0,7.0,64,0.00,,,0.00,VWS V14.01,2013-02-02 16:00:00,
2013-02-02 11:03:00,18.0,7.5,30.18,ENE,69,4.0,9.0,63,0.00,,,0.00,VWS V14.01,2013-02-02 16:03:00,
2013-02-02 11:04:00,18.1,7.6,30.18,NE,36,3.0,10.0,63,0.00,,,0.00,VWS V14.01,2013-02-02 16:04:00,
2013-02-02 11:05:00,18.1,7.6,30.18,East,80,7.0,10.0,63,0.00,,,0.00,VWS V14.01,2013-02-02 16:05:00,
2013-02-02 11:08:00,18.1,7.6,30.18,NNE,17,3.0,10.0,63,0.00,,,0.00,VWS V14.01,2013-02-02 16:08:00,
2013-02-02 11:10:00,18.2,7.7,30.17,East,98,7.0,15.0,63,0.00,,,0.00,VWS V14.01,2013-02-02 16:10:00,
2013-02-02 11:13:00,18.3,8.2,30.17,ENE,76,4.0,10.0,64,0.00,,,0.00,VWS V14.01,2013-02-02 16:13:00,
2013-02-02 11:15:00,18.4,8.3,30.17,NNE,29,4.0,10.0,64,0.00,,,0.00,VWS V14.01,2013-02-02 16:15:00,
2013-02-02 11:18:00,18.5,8.4,30.17,North,355,1.0,11.0,64,0.00,,,0.00,VWS V14.01,2013-02-02 16:18:00,
2013-02-02 11:19:00,18.5,8.4,30.17,North,5,1.0,11.0,64,0.00,,,0.00,VWS V14.01,2013-02-02 16:19:00,
2013-02-02 11:20:00,18.5,8.0,30.17,ENE,74,3.0,11.0,63,0.00,,,0.00,VWS V14.01,2013-02-02 16:20:00,
2013-02-02 11:23:00,18.7,8.6,30.17,NNE,32,2.0,5.0,64,0.00,,,0.00,VWS V14.01,2013-02-02 16:23:00,
2013-02-02 11:24:00,18.8,8.6,30.17,North,5,3.0,5.0,64,0.00,,,0.00,VWS V14.01,2013-02-02 16:24:00,
2013-02-02 11:25:00,18.9,8.8,30.17,NNE,14,1.0,5.0,64,0.00,,,0.00,VWS V14.01,2013-02-02 16:25:00,
2013-02-02 11:28:00,19.0,8.1,30.17,ENE,59,2.0,12.0,62,0.00,,,0.00,VWS V14.01,2013-02-02 16:28:00,
2013-02-02 11:29:00,19.0,7.8,30.16,East,94,3.0,12.0,61,0.00,,,0.00,VWS V14.01,2013-02-02 16:29:00,
2013-02-02 11:30:00,18.9,7.7,30.16,East,86,3.0,12.0,61,0.00,,,0.00,VWS V14.01,2013-02-02 16:30:00,
2013-02-02 11:33:00,18.8,7.9,30.16,ESE,102,7.0,12.0,62,0.00,,,0.00,VWS V14.01,2013-02-02 16:33:00,
2013-02-02 11:34:00,18.8,7.9,30.16,East,80,7.0,12.0,62,0.00,,,0.00,VWS V14.01,2013-02-02 16:34:00,
2013-02-02 11:35:00,18.8,7.9,30.16,ESE,102,5.0,12.0,62,0.00,,,0.00,VWS V14.01,2013-02-02 16:35:00,
2013-02-02 11:38:00,18.7,7.5,30.16,East,85,4.0,13.0,61,0.00,,,0.00,VWS V14.01,2013-02-02 16:38:00,
2013-02-02 11:39:00,18.6,7.4,30.16,East,94,10.0,13.0,61,0.00,,,0.00,VWS V14.01,2013-02-02 16:39:00,
2013-02-02 11:40:00,18.5,7.7,30.16,ENE,72,9.0,13.0,62,0.00,,,0.00,VWS V14.01,2013-02-02 16:40:00,
2013-02-02 11:41:00,18.5,7.7,30.16,East,92,5.0,9.0,62,0.00,,,0.00,VWS V14.01,2013-02-02 16:41:00,
2013-02-02 11:43:00,18.5,7.7,30.15,East,101,11.0,15.0,62,0.00,,,0.00,VWS V14.01,2013-02-02 16:43:00,
2013-02-02 11:44:00,18.5,7.7,30.15,ESE,104,7.0,15.0,62,0.00,,,0.00,VWS V14.01,2013-02-02 16:44:00,
2013-02-02 11:45:00,18.5,7.7,30.15,East,88,6.0,15.0,62,0.00,,,0.00,VWS V14.01,2013-02-02 16:45:00,
2013-02-02 11:46:00,18.6,7.8,30.15,East,86,2.0,6.0,62,0.00,,,0.00,VWS V14.01,2013-02-02 16:46:00,
2013-02-02 11:48:00,18.6,8.1,30.15,East,86,6.0,12.0,63,0.00,,,0.00,VWS V14.01,2013-02-02 16:48:00,
2013-02-02 11:49:00,18.6,7.8,30.15,NE,46,4.0,12.0,62,0.00,,,0.00,VWS V14.01,2013-02-02 16:49:00,
2013-02-02 11:50:00,18.6,7.8,30.15,ESE,106,13.0,13.0,62,0.00,,,0.00,VWS V14.01,2013-02-02 16:50:00,
2013-02-02 11:51:00,18.5,7.7,30.15,East,90,7.0,9.0,62,0.00,,,0.00,VWS V14.01,2013-02-02 16:51:00,
2013-02-02 11:53:00,18.5,8.0,30.15,East,86,7.0,9.0,63,0.00,,,0.00,VWS V14.01,2013-02-02 16:53:00,
2013-02-02 11:54:00,18.5,8.0,30.15,ESE,122,5.0,9.0,63,0.00,,,0.00,VWS V14.01,2013-02-02 16:54:00,
2013-02-02 11:55:00,18.5,7.7,30.15,ENE,69,4.0,9.0,62,0.00,,,0.00,VWS V14.01,2013-02-02 16:55:00,
2013-02-02 11:56:00,18.6,8.1,30.14,NE,45,2.0,6.0,63,0.00,,,0.00,VWS V14.01,2013-02-02 16:56:00,
2013-02-02 11:59:00,18.7,8.2,30.14,East,88,7.0,12.0,63,0.00,,,0.00,VWS V14.01,2013-02-02 16:59:00,
2013-02-02 12:00:00,18.7,8.2,30.14,SSE,162,3.0,12.0,63,0.00,,,0.00,VWS V14.01,2013-02-02 17:00:00,
2013-02-02 12:02:00,18.8,8.3,30.14,East,94,7.0,12.0,63,0.00,,,0.00,VWS V14.01,2013-02-02 17:02:00,
2013-02-02 12:04:00,18.9,8.4,30.14,SSE,167,6.0,12.0,63,0.00,,,0.00,VWS V14.01,2013-02-02 17:04:00,
2013-02-02 12:05:00,19.0,8.5,30.14,East,79,3.0,12.0,63,0.00,,,0.00,VWS V14.01,2013-02-02 17:05:00,
2013-02-02 12:07:00,19.1,8.6,30.14,East,101,9.0,9.0,63,0.00,,,0.00,VWS V14.01,2013-02-02 17:07:00,
2013-02-02 12:09:00,19.1,8.2,30.14,NNW,332,6.0,11.0,62,0.00,,,0.00,VWS V14.01,2013-02-02 17:09:00,
2013-02-02 12:10:00,19.1,8.2,30.14,ENE,60,4.0,11.0,62,0.00,,,0.00,VWS V14.01,2013-02-02 17:10:00,
2013-02-02 12:12:00,19.2,8.3,30.14,East,88,6.0,6.0,62,0.00,,,0.00,VWS V14.01,2013-02-02 17:12:00,
2013-02-02 12:14:00,19.2,8.3,30.14,ESE,117,6.0,11.0,62,0.00,,,0.00,VWS V14.01,2013-02-02 17:14:00,
2013-02-02 12:15:00,19.3,8.8,30.13,ENE,77,3.0,11.0,63,0.00,,,0.00,VWS V14.01,2013-02-02 17:15:00,
2013-02-02 12:17:00,19.2,8.7,30.13,East,81,3.0,5.0,63,0.00,,,0.00,VWS V14.01,2013-02-02 17:17:00,
2013-02-02 12:19:00,19.2,8.7,30.13,ENE,76,7.0,11.0,63,0.00,,,0.00,VWS V14.01,2013-02-02 17:19:00,
2013-02-02 12:20:00,19.2,8.3,30.13,ENE,76,3.0,11.0,62,0.00,,,0.00,VWS V14.01,2013-02-02 17:20:00,
2013-02-02 12:22:00,19.2,8.7,30.13,ENE,68,8.0,11.0,63,0.00,,,0.00,VWS V14.01,2013-02-02 17:22:00,
2013-02-02 12:24:00,19.2,8.7,30.13,ESE,119,5.0,12.0,63,0.00,,,0.00,VWS V14.01,2013-02-02 17:24:00,
2013-02-02 12:25:00,19.2,8.7,30.13,NE,34,3.0,12.0,63,0.00,,,0.00,VWS V14.01,2013-02-02 17:25:00,
2013-02-02 12:27:00,19.2,8.7,30.13,East,96,8.0,12.0,63,0.00,,,0.00,VWS V14.01,2013-02-02 17:27:00,
2013-02-02 12:29:00,19.2,8.7,30.13,ENE,63,4.0,12.0,63,0.00,,,0.00,VWS V14.01,2013-02-02 17:29:00,
2013-02-02 12:30:00,19.2,8.7,30.13,West,276,2.0,12.0,63,0.00,,,0.00,VWS V14.01,2013-02-02 17:30:00,
2013-02-02 12:32:00,19.3,9.1,30.12,East,84,4.0,8.0,64,0.00,,,0.00,VWS V14.01,2013-02-02 17:32:00,
2013-02-02 12:34:00,19.3,9.1,30.12,ENE,76,11.0,11.0,64,0.00,,,0.00,VWS V14.01,2013-02-02 17:34:00,
2013-02-02 12:35:00,19.3,8.8,30.12,ENE,67,3.0,11.0,63,0.00,,,0.00,VWS V14.01,2013-02-02 17:35:00,
2013-02-02 12:37:00,19.2,8.7,30.12,ESE,118,5.0,9.0,63,0.00,,,0.00,VWS V14.01,2013-02-02 17:37:00,
2013-02-02 12:39:00,19.2,8.7,30.12,ENE,66,4.0,9.0,63,0.00,,,0.00,VWS V14.01,2013-02-02 17:39:00,
2013-02-02 12:40:00,19.2,8.7,30.12,WNW,299,1.0,9.0,63,0.00,,,0.00,VWS V14.01,2013-02-02 17:40:00,
2013-02-02 12:42:00,19.3,9.1,30.12,East,98,5.0,8.0,64,0.00,,,0.00,VWS V14.01,2013-02-02 17:42:00,
2013-02-02 12:44:00,19.3,8.8,30.12,ENE,68,2.0,8.0,63,0.00,,,0.00,VWS V14.01,2013-02-02 17:44:00,
2013-02-02 12:45:00,19.3,8.8,30.12,ENE,77,6.0,8.0,63,0.00,,,0.00,VWS V14.01,2013-02-02 17:45:00,
2013-02-02 12:46:00,19.3,8.8,30.12,ENE,72,3.0,4.0,63,0.00,,,0.00,VWS V14.01,2013-02-02 17:46:00,
2013-02-02 12:47:00,19.4,9.2,30.12,East,85,1.0,5.0,64,0.00,,,0.00,VWS V14.01,2013-02-02 17:47:00,
2013-02-02 12:49:00,19.6,9.4,30.12,NE,35,5.0,9.0,64,0.00,,,0.00,VWS V14.01,2013-02-02 17:49:00,
2013-02-02 12:50:00,19.6,9.4,30.12,East,87,6.0,9.0,64,0.00,,,0.00,VWS V14.01,2013-02-02 17:50:00,
2013-02-02 12:51:00,19.6,9.4,30.12,North,360,4.0,5.0,64,0.00,,,0.00,VWS V14.01,2013-02-02 17:51:00,
2013-02-02 12:52:00,19.6,9.4,30.12,East,96,6.0,10.0,64,0.00,,,0.00,VWS V14.01,2013-02-02 17:52:00,
2013-02-02 12:54:00,19.5,9.0,30.12,ENE,61,3.0,12.0,63,0.00,,,0.00,VWS V14.01,2013-02-02 17:54:00,
2013-02-02 12:55:00,19.6,9.1,30.12,ENE,58,10.0,12.0,63,0.00,,,0.00,VWS V14.01,2013-02-02 17:55:00,
2013-02-02 12:56:00,19.6,9.1,30.12,East,90,9.0,10.0,63,0.00,,,0.00,VWS V14.01,2013-02-02 17:56:00,
2013-02-02 12:57:00,19.5,8.6,30.12,NE,51,2.0,11.0,62,0.00,,,0.00,VWS V14.01,2013-02-02 17:57:00,
2013-02-02 12:59:00,19.5,9.0,30.11,East,79,4.0,11.0,63,0.00,,,0.00,VWS V14.01,2013-02-02 17:59:00,
2013-02-02 13:00:00,19.5,9.0,30.11,East,92,6.0,11.0,63,0.00,,,0.00,VWS V14.01,2013-02-02 18:00:00,
2013-02-02 13:01:00,19.5,9.0,30.11,East,97,4.0,5.0,63,0.00,,,0.00,VWS V14.01,2013-02-02 18:01:00,
2013-02-02 13:02:00,19.5,9.0,30.11,East,88,4.0,5.0,63,0.00,,,0.00,VWS V14.01,2013-02-02 18:02:00,
2013-02-02 13:04:00,19.6,9.1,30.11,East,100,3.0,11.0,63,0.00,,,0.00,VWS V14.01,2013-02-02 18:04:00,
2013-02-02 13:05:00,19.6,9.1,30.11,ENE,74,4.0,11.0,63,0.00,,,0.00,VWS V14.01,2013-02-02 18:05:00,
2013-02-02 13:06:00,19.7,9.2,30.11,East,88,4.0,5.0,63,0.00,,,0.00,VWS V14.01,2013-02-02 18:06:00,
2013-02-02 13:07:00,19.7,9.2,30.11,SE,132,4.0,6.0,63,0.00,,,0.00,VWS V14.01,2013-02-02 18:07:00,
2013-02-02 13:10:00,19.7,9.5,30.11,ESE,105,4.0,7.0,64,0.00,,,0.00,VWS V14.01,2013-02-02 18:10:00,
2013-02-02 13:11:00,19.7,9.2,30.11,East,95,6.0,7.0,63,0.00,,,0.00,VWS V14.01,2013-02-02 18:11:00,
2013-02-02 13:12:00,19.7,9.2,30.11,East,88,7.0,14.0,63,0.00,,,0.00,VWS V14.01,2013-02-02 18:12:00,
2013-02-02 13:15:00,19.7,9.2,30.11,ENE,61,4.0,14.0,63,0.00,,,0.00,VWS V14.01,2013-02-02 18:15:00,
2013-02-02 13:16:00,19.7,9.5,30.11,East,95,5.0,10.0,64,0.00,,,0.00,VWS V14.01,2013-02-02 18:16:00,
2013-02-02 13:17:00,19.5,9.3,30.11,NE,45,4.0,10.0,64,0.00,,,0.00,VWS V14.01,2013-02-02 18:17:00,
2013-02-02 13:20:00,19.5,9.0,30.10,East,94,5.0,14.0,63,0.00,,,0.00,VWS V14.01,2013-02-02 18:20:00,
2013-02-02 13:21:00,19.5,9.3,30.10,East,97,5.0,7.0,64,0.00,,,0.00,VWS V14.01,2013-02-02 18:21:00,
2013-02-02 13:23:00,19.5,9.0,30.10,East,100,3.0,14.0,63,0.00,,,0.00,VWS V14.01,2013-02-02 18:23:00,
2013-02-02 13:25:00,19.7,9.5,30.10,East,82,14.0,14.0,64,0.00,,,0.00,VWS V14.01,2013-02-02 18:25:00,
2013-02-02 13:26:00,19.7,9.5,30.10,ESE,121,9.0,12.0,64,0.00,,,0.00,VWS V14.01,2013-02-02 18:26:00,
2013-02-02 13:28:00,19.7,9.2,30.10,East,83,4.0,12.0,63,0.00,,,0.00,VWS V14.01,2013-02-02 18:28:00,
2013-02-02 13:30:00,19.7,9.2,30.10,East,92,4.0,12.0,63,0.00,,,0.00,VWS V14.01,2013-02-02 18:30:00,
2013-02-02 13:31:00,19.7,9.2,30.10,East,86,4.0,9.0,63,0.00,,,0.00,VWS V14.01,2013-02-02 18:31:00,
2013-02-02 13:33:00,19.7,9.5,30.10,ESE,105,5.0,11.0,64,0.00,,,0.00,VWS V14.01,2013-02-02 18:33:00,
2013-02-02 13:35:00,19.7,9.2,30.10,East,84,6.0,14.0,63,0.00,,,0.00,VWS V14.01,2013-02-02 18:35:00,
2013-02-02 13:36:00,19.7,9.5,30.10,East,95,6.0,12.0,64,0.00,,,0.00,VWS V14.01,2013-02-02 18:36:00,
2013-02-02 13:38:00,19.7,9.5,30.10,ENE,76,8.0,14.0,64,0.00,,,0.00,VWS V14.01,2013-02-02 18:38:00,
2013-02-02 13:40:00,19.7,9.5,30.10,East,94,11.0,15.0,64,0.00,,,0.00,VWS V14.01,2013-02-02 18:40:00,
2013-02-02 13:41:00,19.6,9.4,30.10,East,92,11.0,15.0,64,0.00,,,0.00,VWS V14.01,2013-02-02 18:41:00,
2013-02-02 13:42:00,19.6,9.4,30.10,East,95,8.0,15.0,64,0.00,,,0.00,VWS V14.01,2013-02-02 18:42:00,
2013-02-02 13:43:00,19.6,9.4,30.10,ESE,106,11.0,15.0,64,0.00,,,0.00,VWS V14.01,2013-02-02 18:43:00,
2013-02-02 13:45:00,19.5,9.3,30.10,ESE,107,2.0,15.0,64,0.00,,,0.00,VWS V14.01,2013-02-02 18:45:00,
2013-02-02 13:46:00,19.6,9.4,30.10,East,92,10.0,11.0,64,0.00,,,0.00,VWS V14.01,2013-02-02 18:46:00,
2013-02-02 13:47:00,19.6,9.4,30.10,East,86,8.0,11.0,64,0.00,,,0.00,VWS V14.01,2013-02-02 18:47:00,
2013-02-02 13:48:00,19.7,9.9,30.10,ENE,75,9.0,14.0,65,0.00,,,0.00,VWS V14.01,2013-02-02 18:48:00,
2013-02-02 13:50:00,19.7,9.5,30.10,SE,146,5.0,14.0,64,0.00,,,0.00,VWS V14.01,2013-02-02 18:50:00,
2013-02-02 13:52:00,19.7,9.5,30.10,ESE,107,11.0,12.0,64,0.00,,,0.00,VWS V14.01,2013-02-02 18:52:00,
2013-02-02 13:53:00,19.7,9.5,30.10,East,97,10.0,15.0,64,0.00,,,0.00,VWS V14.01,2013-02-02 18:53:00,
2013-02-02 13:55:00,19.7,9.5,30.10,East,97,6.0,15.0,64,0.00,,,0.00,VWS V14.01,2013-02-02 18:55:00,
2013-02-02 13:57:00,19.7,9.5,30.10,East,99,2.0,13.0,64,0.00,,,0.00,VWS V14.01,2013-02-02 18:57:00,
2013-02-02 13:58:00,19.7,9.5,30.10,ESE,113,2.0,13.0,64,0.00,,,0.00,VWS V14.01,2013-02-02 18:58:00,
2013-02-02 14:00:00,19.7,9.5,30.10,East,86,8.0,13.0,64,0.00,,,0.00,VWS V14.01,2013-02-02 19:00:00,
2013-02-02 14:02:00,19.8,9.6,30.10,East,81,6.0,13.0,64,0.00,,,0.00,VWS V14.01,2013-02-02 19:02:00,
2013-02-02 14:04:00,19.8,9.6,30.10,East,90,4.0,13.0,64,0.00,,,0.00,VWS V14.01,2013-02-02 19:04:00,
2013-02-02 14:05:00,19.9,10.1,30.10,SE,134,3.0,13.0,65,0.00,,,0.00,VWS V14.01,2013-02-02 19:05:00,
2013-02-02 14:07:00,19.9,10.1,30.10,East,89,7.0,11.0,65,0.00,,,0.00,VWS V14.01,2013-02-02 19:07:00,
2013-02-02 14:09:00,20.0,10.1,30.10,West,281,1.0,11.0,65,0.00,,,0.00,VWS V14.01,2013-02-02 19:09:00,
2013-02-02 14:10:00,20.0,10.1,30.09,East,88,5.0,11.0,65,0.00,,,0.00,VWS V14.01,2013-02-02 19:10:00,
2013-02-02 14:12:00,20.0,9.8,30.09,East,82,3.0,9.0,64,0.00,,,0.00,VWS V14.01,2013-02-02 19:12:00,
2013-02-02 14:14:00,20.1,9.9,30.09,ESE,103,9.0,9.0,64,0.00,,,0.00,VWS V14.01,2013-02-02 19:14:00,
2013-02-02 14:15:00,20.1,9.9,30.09,ENE,76,9.0,13.0,64,0.00,,,0.00,VWS V14.01,2013-02-02 19:15:00,
2013-02-02 14:17:00,20.2,10.0,30.09,ENE,72,4.0,9.0,64,0.00,,,0.00,VWS V14.01,2013-02-02 19:17:00,
2013-02-02 14:19:00,20.2,10.0,30.09,NNW,339,2.0,9.0,64,0.00,,,0.00,VWS V14.01,2013-02-02 19:19:00,
2013-02-02 14:20:00,20.2,10.0,30.09,North,355,9.0,9.0,64,0.00,,,0.00,VWS V14.01,2013-02-02 19:20:00,
2013-02-02 14:22:00,20.2,10.0,30.09,ESE,103,6.0,9.0,64,0.00,,,0.00,VWS V14.01,2013-02-02 19:22:00,
2013-02-02 14:24:00,20.2,10.0,30.09,ESE,102,4.0,12.0,64,0.00,,,0.00,VWS V14.01,2013-02-02 19:24:00,
2013-02-02 14:25:00,20.2,10.0,30.09,ENE,71,3.0,12.0,64,0.00,,,0.00,VWS V14.01,2013-02-02 19:25:00,
2013-02-02 14:26:00,20.2,10.0,30.09,ENE,71,3.0,3.0,64,0.00,,,0.00,VWS V14.01,2013-02-02 19:26:00,
2013-02-02 14:27:00,20.3,10.4,30.09,East,94,10.0,10.0,65,0.00,,,0.00,VWS V14.01,2013-02-02 19:27:00,
2013-02-02 14:28:00,20.3,10.1,30.09,ESE,104,6.0,10.0,64,0.00,,,0.00,VWS V14.01,2013-02-02 19:28:00,
2013-02-02 14:29:00,20.2,10.0,30.09,East,92,6.0,14.0,64,0.00,,,0.00,VWS V14.01,2013-02-02 19:29:00,
2013-02-02 14:30:00,20.2,10.0,30.09,East,98,9.0,15.0,64,0.00,,,0.00,VWS V14.01,2013-02-02 19:30:00,
2013-02-02 14:31:00,20.2,10.0,30.10,ENE,76,8.0,9.0,64,0.00,,,0.00,VWS V14.01,2013-02-02 19:31:00,
2013-02-02 14:32:00,20.1,10.2,30.10,ENE,61,6.0,10.0,65,0.00,,,0.00,VWS V14.01,2013-02-02 19:32:00,
2013-02-02 14:33:00,20.1,10.2,30.09,East,94,6.0,10.0,65,0.00,,,0.00,VWS V14.01,2013-02-02 19:33:00,
2013-02-02 14:35:00,20.1,10.6,30.10,East,99,5.0,10.0,66,0.00,,,0.00,VWS V14.01,2013-02-02 19:35:00,
2013-02-02 14:36:00,20.1,10.2,30.10,SE,126,4.0,5.0,65,0.00,,,0.00,VWS V14.01,2013-02-02 19:36:00,
2013-02-02 14:38:00,20.1,10.2,30.10,East,82,2.0,11.0,65,0.00,,,0.00,VWS V14.01,2013-02-02 19:38:00,
2013-02-02 14:40:00,20.1,10.2,30.10,East,82,2.0,11.0,65,0.00,,,0.00,VWS V14.01,2013-02-02 19:40:00,
2013-02-02 14:41:00,20.1,10.2,30.10,ENE,58,3.0,5.0,65,0.00,,,0.00,VWS V14.01,2013-02-02 19:41:00,
2013-02-02 14:43:00,20.1,10.2,30.09,ENE,67,5.0,11.0,65,0.00,,,0.00,VWS V14.01,2013-02-02 19:43:00,
2013-02-02 14:45:00,20.2,10.3,30.10,ENE,72,3.0,11.0,65,0.00,,,0.00,VWS V14.01,2013-02-02 19:45:00,
2013-02-02 14:46:00,20.2,10.3,30.10,ENE,67,2.0,4.0,65,0.00,,,0.00,VWS V14.01,2013-02-02 19:46:00,
2013-02-02 14:48:00,20.2,10.3,30.10,East,89,3.0,5.0,65,0.00,,,0.00,VWS V14.01,2013-02-02 19:48:00,
2013-02-02 14:50:00,20.2,10.3,30.10,East,82,4.0,12.0,65,0.00,,,0.00,VWS V14.01,2013-02-02 19:50:00,
2013-02-02 14:51:00,20.3,10.4,30.10,East,100,4.0,6.0,65,0.00,,,0.00,VWS V14.01,2013-02-02 19:51:00,
2013-02-02 14:53:00,20.2,10.3,30.10,NE,37,4.0,10.0,65,0.00,,,0.00,VWS V14.01,2013-02-02 19:53:00,
2013-02-02 14:55:00,20.2,10.0,30.10,SSW,197,4.0,11.0,64,0.00,,,0.00,VWS V14.01,2013-02-02 19:55:00,
2013-02-02 14:56:00,20.2,10.3,30.10,ENE,68,4.0,8.0,65,0.00,,,0.00,VWS V14.01,2013-02-02 19:56:00,
2013-02-02 14:58:00,20.1,10.2,30.10,NW,305,2.0,8.0,65,0.00,,,0.00,VWS V14.01,2013-02-02 19:58:00,
2013-02-02 15:00:00,20.1,10.2,30.10,NNE,33,4.0,9.0,65,0.00,,,0.00,VWS V14.01,2013-02-02 20:00:00,
2013-02-02 15:01:00,20.1,10.2,30.09,NNE,33,3.0,4.0,65,0.00,,,0.00,VWS V14.01,2013-02-02 20:01:00,
2013-02-02 15:03:00,20.1,10.2,30.09,ESE,111,7.0,7.0,65,0.00,,,0.00,VWS V14.01,2013-02-02 20:03:00,
2013-02-02 15:05:00,20.1,10.2,30.09,ENE,77,3.0,7.0,65,0.00,,,0.00,VWS V14.01,2013-02-02 20:05:00,
2013-02-02 15:07:00,20.1,10.6,30.09,North,360,3.0,5.0,66,0.00,,,0.00,VWS V14.01,2013-02-02 20:07:00,
2013-02-02 15:08:00,20.2,10.7,30.09,ENE,74,5.0,5.0,66,0.00,,,0.00,VWS V14.01,2013-02-02 20:08:00,
2013-02-02 15:10:00,20.2,10.7,30.09,ENE,74,4.0,7.0,66,0.00,,,0.00,VWS V14.01,2013-02-02 20:10:00,
2013-02-02 15:11:00,20.2,10.7,30.09,ENE,74,3.0,4.0,66,0.00,,,0.00,VWS V14.01,2013-02-02 20:11:00,
2013-02-02 15:12:00,20.2,10.3,30.09,East,82,0.0,4.0,65,0.00,,,0.00,VWS V14.01,2013-02-02 20:12:00,
2013-02-02 15:13:00,20.2,10.3,30.09,SSE,156,1.0,5.0,65,0.00,,,0.00,VWS V14.01,2013-02-02 20:13:00,
2013-02-02 15:15:00,20.2,10.7,30.09,ESE,108,4.0,5.0,66,0.00,,,0.00,VWS V14.01,2013-02-02 20:15:00,
2013-02-02 15:16:00,20.3,10.8,30.09,East,94,4.0,5.0,66,0.00,,,0.00,VWS V14.01,2013-02-02 20:16:00,
2013-02-02 15:17:00,20.3,10.4,30.09,NNE,30,4.0,6.0,65,0.00,,,0.00,VWS V14.01,2013-02-02 20:17:00,
2013-02-02 15:18:00,20.3,10.8,30.09,North,9,3.0,6.0,66,0.00,,,0.00,VWS V14.01,2013-02-02 20:18:00,
2013-02-02 15:20:00,20.2,10.7,30.09,NNE,26,3.0,6.0,66,0.00,,,0.00,VWS V14.01,2013-02-02 20:20:00,
2013-02-02 15:21:00,20.3,10.8,30.09,NE,37,1.0,3.0,66,0.00,,,0.00,VWS V14.01,2013-02-02 20:21:00,
2013-02-02 15:22:00,20.2,10.7,30.09,SSE,165,3.0,4.0,66,0.00,,,0.00,VWS V14.01,2013-02-02 20:22:00,
2013-02-02 15:23:00,20.3,10.8,30.09,East,86,4.0,8.0,66,0.00,,,0.00,VWS V14.01,2013-02-02 20:23:00,
2013-02-02 15:25:00,20.2,10.3,30.09,NE,39,4.0,8.0,65,0.00,,,0.00,VWS V14.01,2013-02-02 20:25:00,
2013-02-02 15:26:00,20.2,10.3,30.09,ESE,108,2.0,4.0,65,0.00,,,0.00,VWS V14.01,2013-02-02 20:26:00,
2013-02-02 15:27:00,20.2,10.3,30.09,East,100,5.0,6.0,65,0.00,,,0.00,VWS V14.01,2013-02-02 20:27:00,
2013-02-02 15:28:00,20.2,10.7,30.09,East,80,4.0,7.0,66,0.00,,,0.00,VWS V14.01,2013-02-02 20:28:00,
2013-02-02 15:29:00,20.2,10.7,30.09,East,80,4.0,7.0,66,0.00,,,0.00,VWS V14.01,2013-02-02 20:29:00,
2013-02-02 15:30:00,20.2,10.7,30.09,East,99,2.0,8.0,66,0.00,,,0.00,VWS V14.01,2013-02-02 20:30:00,
2013-02-02 15:31:00,20.2,10.7,30.09,East,99,8.0,9.0,66,0.00,,,0.00,VWS V14.01,2013-02-02 20:31:00,
2013-02-02 15:32:00,20.1,10.6,30.09,East,92,4.0,9.0,66,0.00,,,0.00,VWS V14.01,2013-02-02 20:32:00,
2013-02-02 15:34:00,20.0,10.5,30.09,ESE,103,5.0,9.0,66,0.00,,,0.00,VWS V14.01,2013-02-02 20:34:00,
2013-02-02 15:35:00,20.0,10.5,30.09,NW,325,4.0,9.0,66,0.00,,,0.00,VWS V14.01,2013-02-02 20:35:00,
2013-02-02 15:36:00,20.0,10.5,30.09,North,350,3.0,4.0,66,0.00,,,0.00,VWS V14.01,2013-02-02 20:36:00,
2013-02-02 15:37:00,20.0,10.5,30.08,North,350,3.0,6.0,66,0.00,,,0.00,VWS V14.01,2013-02-02 20:37:00,
2013-02-02 15:39:00,20.0,10.8,30.09,NNE,27,3.0,6.0,67,0.00,,,0.00,VWS V14.01,2013-02-02 20:39:00,
2013-02-02 15:40:00,20.0,10.8,30.09,ENE,60,4.0,6.0,67,0.00,,,0.00,VWS V14.01,2013-02-02 20:40:00,
2013-02-02 15:41:00,20.0,10.8,30.09,ENE,64,4.0,7.0,67,0.00,,,0.00,VWS V14.01,2013-02-02 20:41:00,
2013-02-02 15:42:00,20.0,10.5,30.09,East,90,3.0,7.0,66,0.00,,,0.00,VWS V14.01,2013-02-02 20:42:00,
2013-02-02 15:44:00,20.0,10.5,30.09,East,84,4.0,7.0,66,0.00,,,0.00,VWS V14.01,2013-02-02 20:44:00,
2013-02-02 15:45:00,20.0,10.5,30.09,ENE,59,3.0,7.0,66,0.00,,,0.00,VWS V14.01,2013-02-02 20:45:00,
2013-02-02 15:46:00,20.0,10.8,30.08,ENE,59,1.0,3.0,67,0.00,,,0.00,VWS V14.01,2013-02-02 20:46:00,
2013-02-02 15:47:00,20.0,10.8,30.08,ENE,59,0.0,3.0,67,0.00,,,0.00,VWS V14.01,2013-02-02 20:47:00,
2013-02-02 15:49:00,20.0,10.5,30.08,ENE,76,3.0,5.0,66,0.00,,,0.00,VWS V14.01,2013-02-02 20:49:00,
2013-02-02 15:50:00,20.0,10.8,30.09,ENE,76,3.0,5.0,67,0.00,,,0.00,VWS V14.01,2013-02-02 20:50:00,
2013-02-02 15:51:00,20.0,10.8,30.08,ENE,76,0.0,4.0,67,0.00,,,0.00,VWS V14.01,2013-02-02 20:51:00,
2013-02-02 15:52:00,20.0,10.8,30.08,ENE,76,1.0,4.0,67,0.00,,,0.00,VWS V14.01,2013-02-02 20:52:00,
2013-02-02 15:54:00,20.0,10.5,30.08,East,80,3.0,4.0,66,0.00,,,0.00,VWS V14.01,2013-02-02 20:54:00,
2013-02-02 15:55:00,20.0,10.8,30.08,East,96,2.0,4.0,67,0.00,,,0.00,VWS V14.01,2013-02-02 20:55:00,
2013-02-02 15:56:00,20.0,10.8,30.08,East,84,4.0,6.0,67,0.00,,,0.00,VWS V14.01,2013-02-02 20:56:00,
2013-02-02 15:57:00,20.0,10.8,30.08,East,86,3.0,6.0,67,0.00,,,0.00,VWS V14.01,2013-02-02 20:57:00,
2013-02-02 15:59:00,20.0,10.8,30.08,East,84,2.0,6.0,67,0.00,,,0.00,VWS V14.01,2013-02-02 20:59:00,
2013-02-02 16:00:00,20.1,10.9,30.08,SSE,151,2.0,6.0,67,0.00,,,0.00,VWS V14.01,2013-02-02 21:00:00,
2013-02-02 16:01:00,20.1,10.9,30.08,NNE,25,3.0,3.0,67,0.00,,,0.00,VWS V14.01,2013-02-02 21:01:00,
2013-02-02 16:02:00,20.1,10.9,30.08,NNW,348,1.0,4.0,67,0.00,,,0.00,VWS V14.01,2013-02-02 21:02:00,
2013-02-02 16:04:00,20.1,10.9,30.08,ESE,105,3.0,5.0,67,0.00,,,0.00,VWS V14.01,2013-02-02 21:04:00,
2013-02-02 16:05:00,20.1,10.9,30.08,ESE,104,1.0,5.0,67,0.00,,,0.00,VWS V14.01,2013-02-02 21:05:00,
2013-02-02 16:06:00,20.1,10.9,30.08,ESE,104,3.0,4.0,67,0.00,,,0.00,VWS V14.01,2013-02-02 21:06:00,
2013-02-02 16:07:00,20.1,10.9,30.08,ESE,103,5.0,5.0,67,0.00,,,0.00,VWS V14.01,2013-02-02 21:07:00,
2013-02-02 16:09:00,20.1,10.9,30.08,ESE,107,1.0,5.0,67,0.00,,,0.00,VWS V14.01,2013-02-02 21:09:00,
2013-02-02 16:10:00,20.1,10.9,30.08,ESE,107,1.0,5.0,67,0.00,,,0.00,VWS V14.01,2013-02-02 21:10:00,
2013-02-02 16:12:00,20.2,11.0,30.08,ESE,107,1.0,2.0,67,0.00,,,0.00,VWS V14.01,2013-02-02 21:12:00,
2013-02-02 16:14:00,20.2,11.4,30.08,ENE,63,0.0,4.0,68,0.00,,,0.00,VWS V14.01,2013-02-02 21:14:00,
2013-02-02 16:15:00,20.2,11.0,30.08,NNW,327,0.0,4.0,67,0.00,,,0.00,VWS V14.01,2013-02-02 21:15:00,
2013-02-02 16:17:00,20.2,11.0,30.08,NNW,328,2.0,2.0,67,0.00,,,0.00,VWS V14.01,2013-02-02 21:17:00,
2013-02-02 16:19:00,20.2,11.4,30.08,NNW,327,0.0,2.0,68,0.00,,,0.00,VWS V14.01,2013-02-02 21:19:00,
2013-02-02 16:20:00,20.2,11.4,30.08,NNW,327,0.0,2.0,68,0.00,,,0.00,VWS V14.01,2013-02-02 21:20:00,
2013-02-02 16:25:00,20.1,11.2,30.08,ENE,68,1.0,5.0,68,0.00,,,0.00,VWS V14.01,2013-02-02 21:25:00,
2013-02-02 16:26:00,20.1,11.2,30.08,ENE,68,0.0,1.0,68,0.00,,,0.00,VWS V14.01,2013-02-02 21:26:00,
2013-02-02 16:30:00,20.0,11.5,30.07,NNE,32,2.0,5.0,69,0.00,,,0.00,VWS V14.01,2013-02-02 21:30:00,
2013-02-02 16:31:00,20.0,11.5,30.08,NNE,19,3.0,3.0,69,0.00,,,0.00,VWS V14.01,2013-02-02 21:31:00,
2013-02-02 16:35:00,19.8,11.3,30.08,NNW,333,2.0,5.0,69,0.00,,,0.00,VWS V14.01,2013-02-02 21:35:00,
2013-02-02 16:36:00,19.8,11.3,30.08,NNW,333,0.0,2.0,69,0.00,,,0.00,VWS V14.01,2013-02-02 21:36:00,
2013-02-02 16:37:00,19.8,11.6,30.08,NNW,333,1.0,2.0,70,0.00,,,0.00,VWS V14.01,2013-02-02 21:37:00,
2013-02-02 16:40:00,19.7,11.8,30.08,ESE,111,1.0,4.0,71,0.00,,,0.00,VWS V14.01,2013-02-02 21:40:00,
2013-02-02 16:41:00,19.7,11.8,30.08,ESE,111,1.0,3.0,71,0.00,,,0.00,VWS V14.01,2013-02-02 21:41:00,
2013-02-02 16:42:00,19.7,11.8,30.07,ESE,111,2.0,3.0,71,0.00,,,0.00,VWS V14.01,2013-02-02 21:42:00,
2013-02-02 16:45:00,19.7,11.8,30.08,East,101,0.0,3.0,71,0.00,,,0.00,VWS V14.01,2013-02-02 21:45:00,
2013-02-02 16:46:00,19.7,12.1,30.07,ESE,102,1.0,2.0,72,0.00,,,0.00,VWS V14.01,2013-02-02 21:46:00,
2013-02-02 16:47:00,19.7,12.1,30.07,ESE,102,1.0,2.0,72,0.00,,,0.00,VWS V14.01,2013-02-02 21:47:00,
2013-02-02 16:50:00,19.7,12.1,30.07,NE,38,2.0,4.0,72,0.00,,,0.00,VWS V14.01,2013-02-02 21:50:00,
2013-02-02 16:51:00,19.7,12.5,30.07,NE,52,2.0,3.0,73,0.00,,,0.00,VWS V14.01,2013-02-02 21:51:00,
2013-02-02 16:52:00,19.7,12.5,30.07,ENE,61,2.0,3.0,73,0.00,,,0.00,VWS V14.01,2013-02-02 21:52:00,
2013-02-02 16:55:00,19.6,12.7,30.07,NNW,343,1.0,3.0,74,0.00,,,0.00,VWS V14.01,2013-02-02 21:55:00,
2013-02-02 16:56:00,19.5,12.6,30.07,NNW,344,2.0,3.0,74,0.00,,,0.00,VWS V14.01,2013-02-02 21:56:00,
2013-02-02 16:57:00,19.5,12.6,30.07,NNW,344,0.0,3.0,74,0.00,,,0.00,VWS V14.01,2013-02-02 21:57:00,
2013-02-02 17:00:00,19.5,12.9,30.08,NNW,344,1.0,3.0,75,0.00,,,0.00,VWS V14.01,2013-02-02 22:00:00,
2013-02-02 17:01:00,19.4,12.8,30.07,NNW,344,0.0,1.0,75,0.00,,,0.00,VWS V14.01,2013-02-02 22:01:00,
2013-02-02 17:02:00,19.4,13.1,30.07,NNW,342,0.0,1.0,76,0.00,,,0.00,VWS V14.01,2013-02-02 22:02:00,
2013-02-02 17:05:00,19.3,13.0,30.07,North,360,1.0,3.0,76,0.00,,,0.00,VWS V14.01,2013-02-02 22:05:00,
2013-02-02 17:06:00,19.3,13.0,30.07,North,360,3.0,3.0,76,0.00,,,0.00,VWS V14.01,2013-02-02 22:06:00,
2013-02-02 17:07:00,19.3,13.0,30.07,North,360,1.0,3.0,76,0.00,,,0.00,VWS V14.01,2013-02-02 22:07:00,
2013-02-02 17:10:00,19.1,13.1,30.07,NW,315,0.0,4.0,77,0.00,,,0.00,VWS V14.01,2013-02-02 22:10:00,
2013-02-02 17:11:00,19.1,13.1,30.07,North,11,3.0,4.0,77,0.00,,,0.00,VWS V14.01,2013-02-02 22:11:00,
2013-02-02 17:12:00,19.1,13.1,30.07,North,10,1.0,4.0,77,0.00,,,0.00,VWS V14.01,2013-02-02 22:12:00,
2013-02-02 17:15:00,19.0,13.3,30.07,North,5,1.0,5.0,78,0.00,,,0.00,VWS V14.01,2013-02-02 22:15:00,
2013-02-02 17:16:00,19.0,13.3,30.08,NNW,345,2.0,4.0,78,0.00,,,0.00,VWS V14.01,2013-02-02 22:16:00,
2013-02-02 17:17:00,19.0,13.3,30.07,NNE,19,3.0,4.0,78,0.00,,,0.00,VWS V14.01,2013-02-02 22:17:00,
2013-02-02 17:20:00,18.9,13.5,30.07,ENE,74,0.0,4.0,79,0.00,,,0.00,VWS V14.01,2013-02-02 22:20:00,
2013-02-02 17:22:00,18.9,13.5,30.08,ENE,74,0.0,0.0,79,0.00,,,0.00,VWS V14.01,2013-02-02 22:22:00,
2013-02-02 17:23:00,18.8,13.4,30.08,North,360,1.0,3.0,79,0.00,,,0.00,VWS V14.01,2013-02-02 22:23:00,
2013-02-02 17:25:00,18.8,13.7,30.08,North,5,0.0,3.0,80,0.00,,,0.00,VWS V14.01,2013-02-02 22:25:00,
2013-02-02 17:27:00,18.8,13.7,30.07,North,360,0.0,2.0,80,0.00,,,0.00,VWS V14.01,2013-02-02 22:27:00,
2013-02-02 17:28:00,18.8,13.7,30.07,North,5,0.0,4.0,80,0.00,,,0.00,VWS V14.01,2013-02-02 22:28:00,
2013-02-02 17:30:00,18.7,13.6,30.07,North,360,3.0,4.0,80,0.00,,,0.00,VWS V14.01,2013-02-02 22:30:00,
2013-02-02 17:32:00,18.7,13.6,30.07,North,5,1.0,3.0,80,0.00,,,0.00,VWS V14.01,2013-02-02 22:32:00,
2013-02-02 17:33:00,18.7,13.6,30.07,North,5,0.0,3.0,80,0.00,,,0.00,VWS V14.01,2013-02-02 22:33:00,
2013-02-02 17:35:00,18.6,13.8,30.07,NW,321,2.0,6.0,81,0.00,,,0.00,VWS V14.01,2013-02-02 22:35:00,
2013-02-02 17:37:00,18.6,13.8,30.07,NW,321,0.0,2.0,81,0.00,,,0.00,VWS V14.01,2013-02-02 22:37:00,
2013-02-02 17:38:00,18.6,13.8,30.07,NW,320,2.0,3.0,81,0.00,,,0.00,VWS V14.01,2013-02-02 22:38:00,
2013-02-02 17:40:00,18.6,13.8,30.07,North,355,4.0,4.0,81,0.00,,,0.00,VWS V14.01,2013-02-02 22:40:00,
2013-02-02 17:42:00,18.6,13.8,30.07,North,5,4.0,6.0,81,0.00,,,0.00,VWS V14.01,2013-02-02 22:42:00,
2013-02-02 17:43:00,18.6,13.8,30.07,NNW,340,5.0,6.0,81,0.00,,,0.00,VWS V14.01,2013-02-02 22:43:00,
2013-02-02 17:45:00,18.5,13.6,30.07,North,355,4.0,6.0,81,0.00,,,0.00,VWS V14.01,2013-02-02 22:45:00,
2013-02-02 17:47:00,18.5,13.6,30.07,NNE,30,4.0,6.0,81,0.00,,,0.00,VWS V14.01,2013-02-02 22:47:00,
2013-02-02 17:48:00,18.5,13.6,30.07,NNW,339,2.0,6.0,81,0.00,,,0.00,VWS V14.01,2013-02-02 22:48:00,
2013-02-02 17:50:00,18.5,15.8,30.08,NW,326,1.0,6.0,89,0.00,,,0.00,VWS V14.01,2013-02-02 22:50:00,
2013-02-02 17:52:00,18.5,13.9,30.08,NNW,331,4.0,5.0,82,0.00,,,0.00,VWS V14.01,2013-02-02 22:52:00,
2013-02-02 17:53:00,18.5,13.9,30.08,North,360,6.0,6.0,82,0.00,,,0.00,VWS V14.01,2013-02-02 22:53:00,
2013-02-02 17:55:00,18.5,13.9,30.08,NNW,328,3.0,6.0,82,0.00,,,0.00,VWS V14.01,2013-02-02 22:55:00,
2013-02-02 17:57:00,18.6,14.0,30.08,North,9,4.0,6.0,82,0.00,,,0.00,VWS V14.01,2013-02-02 22:57:00,
2013-02-02 17:58:00,18.6,14.0,30.08,NW,319,3.0,6.0,82,0.00,,,0.00,VWS V14.01,2013-02-02 22:58:00,
2013-02-02 18:00:00,18.6,14.0,30.08,NNW,338,3.0,9.0,82,0.00,,,0.00,VWS V14.01,2013-02-02 23:00:00,
2013-02-02 18:02:00,18.6,14.0,30.08,North,360,3.0,6.0,82,0.00,,,0.00,VWS V14.01,2013-02-02 23:02:00,
2013-02-02 18:03:00,18.6,14.0,30.08,North,360,2.0,6.0,82,0.00,,,0.00,VWS V14.01,2013-02-02 23:03:00,
2013-02-02 18:05:00,18.6,14.0,30.08,NW,319,1.0,6.0,82,0.00,,,0.00,VWS V14.01,2013-02-02 23:05:00,
2013-02-02 18:07:00,18.7,14.1,30.08,NW,319,1.0,2.0,82,0.00,,,0.00,VWS V14.01,2013-02-02 23:07:00,
2013-02-02 18:08:00,18.7,14.1,30.08,NW,318,2.0,3.0,82,0.00,,,0.00,VWS V14.01,2013-02-02 23:08:00,
2013-02-02 18:09:00,18.7,14.1,30.08,North,355,4.0,5.0,82,0.00,,,0.00,VWS V14.01,2013-02-02 23:09:00,
2013-02-02 18:10:00,18.7,14.1,30.08,NW,315,2.0,5.0,82,0.00,,,0.00,VWS V14.01,2013-02-02 23:10:00,
2013-02-02 18:12:00,18.7,14.1,30.08,North,5,5.0,6.0,82,0.00,,,0.00,VWS V14.01,2013-02-02 23:12:00,
2013-02-02 18:13:00,18.7,14.1,30.08,NNW,330,3.0,6.0,82,0.00,,,0.00,VWS V14.01,2013-02-02 23:13:00,
2013-02-02 18:14:00,18.7,14.1,30.08,NNW,329,2.0,6.0,82,0.00,,,0.00,VWS V14.01,2013-02-02 23:14:00,
2013-02-02 18:15:00,18.7,14.1,30.08,NNW,330,3.0,6.0,82,0.00,,,0.00,VWS V14.01,2013-02-02 23:15:00,
2013-02-02 18:18:00,18.7,14.1,30.08,NW,314,3.0,4.0,82,0.00,,,0.00,VWS V14.01,2013-02-02 23:18:00,
2013-02-02 18:19:00,18.7,14.1,30.08,North,349,2.0,5.0,82,0.00,,,0.00,VWS V14.01,2013-02-02 23:19:00,
2013-02-02 18:20:00,18.6,14.0,30.08,NNW,348,1.0,5.0,82,0.00,,,0.00,VWS V14.01,2013-02-02 23:20:00,
2013-02-02 18:23:00,18.6,14.0,30.08,NW,319,4.0,6.0,82,0.00,,,0.00,VWS V14.01,2013-02-02 23:23:00,
2013-02-02 18:24:00,18.6,14.0,30.08,NNW,348,2.0,6.0,82,0.00,,,0.00,VWS V14.01,2013-02-02 23:24:00,
2013-02-02 18:25:00,18.6,14.3,30.08,NNW,348,2.0,6.0,83,0.00,,,0.00,VWS V14.01,2013-02-02 23:25:00,
2013-02-02 18:28:00,18.6,14.3,30.08,North,360,2.0,4.0,83,0.00,,,0.00,VWS V14.01,2013-02-02 23:28:00,
2013-02-02 18:29:00,18.6,14.3,30.08,North,360,2.0,4.0,83,0.00,,,0.00,VWS V14.01,2013-02-02 23:29:00,
2013-02-02 18:30:00,18.6,14.3,30.08,North,360,3.0,5.0,83,0.00,,,0.00,VWS V14.01,2013-02-02 23:30:00,
2013-02-02 18:33:00,18.6,14.3,30.08,North,360,3.0,4.0,83,0.00,,,0.00,VWS V14.01,2013-02-02 23:33:00,
2013-02-02 18:34:00,18.5,14.2,30.08,North,360,2.0,4.0,83,0.00,,,0.00,VWS V14.01,2013-02-02 23:34:00,
2013-02-02 18:35:00,18.5,14.2,30.08,North,360,0.0,4.0,83,0.00,,,0.00,VWS V14.01,2013-02-02 23:35:00,
2013-02-02 18:38:00,18.5,14.5,30.08,NW,311,0.0,5.0,84,0.00,,,0.00,VWS V14.01,2013-02-02 23:38:00,
2013-02-02 18:39:00,18.5,14.5,30.07,NW,311,3.0,5.0,84,0.00,,,0.00,VWS V14.01,2013-02-02 23:39:00,
2013-02-02 18:40:00,18.5,14.5,30.08,NNW,329,2.0,5.0,84,0.00,,,0.00,VWS V14.01,2013-02-02 23:40:00,
2013-02-02 18:43:00,18.5,14.5,30.07,NNW,327,0.0,3.0,84,0.00,,,0.00,VWS V14.01,2013-02-02 23:43:00,
2013-02-02 18:44:00,18.5,14.5,30.07,NNW,328,1.0,3.0,84,0.00,,,0.00,VWS V14.01,2013-02-02 23:44:00,
2013-02-02 18:45:00,18.4,14.4,30.08,North,360,3.0,5.0,84,0.00,,,0.00,VWS V14.01,2013-02-02 23:45:00,
2013-02-02 18:48:00,18.4,14.4,30.07,North,360,2.0,3.0,84,0.00,,,0.00,VWS V14.01,2013-02-02 23:48:00,
2013-02-02 18:49:00,18.4,14.4,30.07,North,360,3.0,3.0,84,0.00,,,0.00,VWS V14.01,2013-02-02 23:49:00,
2013-02-02 18:50:00,18.4,14.4,30.07,NW,321,6.0,6.0,84,0.00,,,0.00,VWS V14.01,2013-02-02 23:50:00,
2013-02-02 18:53:00,18.4,14.4,30.07,NW,322,2.0,6.0,84,0.00,,,0.00,VWS V14.01,2013-02-02 23:53:00,
2013-02-02 18:54:00,18.4,14.4,30.07,NNW,337,5.0,6.0,84,0.00,,,0.00,VWS V14.01,2013-02-02 23:54:00,
2013-02-02 18:55:00,18.4,14.4,30.07,NNW,335,3.0,6.0,84,0.00,,,0.00,VWS V14.01,2013-02-02 23:55:00,
2013-02-02 18:58:00,18.5,14.5,30.08,WNW,285,3.0,5.0,84,0.00,,,0.00,VWS V14.01,2013-02-02 23:58:00,
2013-02-02 18:59:00,18.5,14.5,30.08,WNW,298,4.0,5.0,84,0.00,,,0.00,VWS V14.01,2013-02-02 23:59:00,
2013-02-02 19:00:00,18.5,14.5,30.08,WNW,298,2.0,5.0,84,0.00,,,0.00,VWS V14.01,2013-02-03 00:00:00,
2013-02-02 19:03:00,18.5,14.2,30.08,North,11,2.0,5.0,83,0.00,,,0.00,VWS V14.01,2013-02-03 00:03:00,
2013-02-02 19:04:00,18.5,14.2,30.08,North,11,2.0,5.0,83,0.00,,,0.00,VWS V14.01,2013-02-03 00:04:00,
2013-02-02 19:05:00,18.6,14.3,30.08,NNW,341,3.0,5.0,83,0.00,,,0.00,VWS V14.01,2013-02-03 00:05:00,
2013-02-02 19:09:00,18.6,14.3,30.08,NW,320,2.0,4.0,83,0.00,,,0.00,VWS V14.01,2013-02-03 00:09:00,
2013-02-02 19:10:00,18.6,14.3,30.08,NW,319,2.0,4.0,83,0.00,,,0.00,VWS V14.01,2013-02-03 00:10:00,
2013-02-02 19:14:00,18.6,14.3,30.08,NW,322,1.0,5.0,83,0.00,,,0.00,VWS V14.01,2013-02-03 00:14:00,
2013-02-02 19:15:00,18.6,14.3,30.08,North,355,4.0,5.0,83,0.00,,,0.00,VWS V14.01,2013-02-03 00:15:00,
2013-02-02 19:19:00,18.7,14.4,30.08,NW,315,2.0,5.0,83,0.00,,,0.00,VWS V14.01,2013-02-03 00:19:00,
2013-02-02 19:20:00,18.7,14.4,30.08,NW,313,3.0,5.0,83,0.00,,,0.00,VWS V14.01,2013-02-03 00:20:00,
2013-02-02 19:21:00,18.8,14.5,30.08,NW,313,0.0,0.0,83,0.00,,,0.00,VWS V14.01,2013-02-03 00:21:00,
2013-02-02 19:24:00,18.8,14.2,30.08,North,355,3.0,6.0,82,0.00,,,0.00,VWS V14.01,2013-02-03 00:24:00,
2013-02-02 19:25:00,18.8,14.2,30.07,North,355,2.0,6.0,82,0.00,,,0.00,VWS V14.01,2013-02-03 00:25:00,
2013-02-02 19:26:00,18.8,14.2,30.08,North,355,4.0,4.0,82,0.00,,,0.00,VWS V14.01,2013-02-03 00:26:00,
2013-02-02 19:29:00,18.9,14.3,30.07,North,355,2.0,4.0,82,0.00,,,0.00,VWS V14.01,2013-02-03 00:29:00,
2013-02-02 19:30:00,18.9,14.3,30.07,North,355,1.0,4.0,82,0.00,,,0.00,VWS V14.01,2013-02-03 00:30:00,
2013-02-02 19:31:00,18.9,14.3,30.08,North,355,3.0,5.0,82,0.00,,,0.00,VWS V14.01,2013-02-03 00:31:00,
2013-02-02 19:34:00,18.9,14.3,30.07,North,355,6.0,6.0,82,0.00,,,0.00,VWS V14.01,2013-02-03 00:34:00,
2013-02-02 19:35:00,18.9,14.3,30.07,NNW,327,4.0,6.0,82,0.00,,,0.00,VWS V14.01,2013-02-03 00:35:00,
2013-02-02 19:36:00,18.9,14.3,30.07,NW,313,3.0,3.0,82,0.00,,,0.00,VWS V14.01,2013-02-03 00:36:00,
2013-02-02 19:39:00,18.9,14.0,30.07,NW,312,3.0,3.0,81,0.00,,,0.00,VWS V14.01,2013-02-03 00:39:00,
2013-02-02 19:40:00,18.9,14.0,30.07,NW,311,0.0,3.0,81,0.00,,,0.00,VWS V14.01,2013-02-03 00:40:00,
2013-02-02 19:41:00,18.9,14.0,30.07,NW,312,0.0,1.0,81,0.00,,,0.00,VWS V14.01,2013-02-03 00:41:00,
2013-02-02 19:44:00,19.0,14.1,30.08,NW,312,4.0,4.0,81,0.00,,,0.00,VWS V14.01,2013-02-03 00:44:00,
2013-02-02 19:45:00,19.0,14.1,30.07,NW,312,3.0,4.0,81,0.00,,,0.00,VWS V14.01,2013-02-03 00:45:00,
2013-02-02 19:46:00,19.0,14.1,30.07,NW,313,1.0,3.0,81,0.00,,,0.00,VWS V14.01,2013-02-03 00:46:00,
2013-02-02 19:49:00,19.0,14.1,30.07,NNW,336,4.0,4.0,81,0.00,,,0.00,VWS V14.01,2013-02-03 00:49:00,
2013-02-02 19:50:00,19.0,14.1,30.07,NNW,336,2.0,4.0,81,0.00,,,0.00,VWS V14.01,2013-02-03 00:50:00,
2013-02-02 19:51:00,19.0,14.1,30.07,NNW,336,2.0,2.0,81,0.00,,,0.00,VWS V14.01,2013-02-03 00:51:00,
2013-02-02 19:54:00,19.0,14.1,30.07,NNW,336,2.0,3.0,81,0.00,,,0.00,VWS V14.01,2013-02-03 00:54:00,
2013-02-02 19:55:00,19.0,14.1,30.07,NNW,336,2.0,3.0,81,0.00,,,0.00,VWS V14.01,2013-02-03 00:55:00,
2013-02-02 19:56:00,19.0,14.1,30.07,NNW,336,0.0,0.0,81,0.00,,,0.00,VWS V14.01,2013-02-03 00:56:00,
2013-02-02 19:59:00,18.9,14.0,30.07,NNW,336,0.0,2.0,81,0.00,,,0.00,VWS V14.01,2013-02-03 00:59:00,
2013-02-02 20:00:00,18.9,14.0,30.07,NNW,336,0.0,2.0,81,0.00,,,0.00,VWS V14.01,2013-02-03 01:00:00,
2013-02-02 20:01:00,18.9,14.0,30.07,NNW,336,0.0,2.0,81,0.00,,,0.00,VWS V14.01,2013-02-03 01:01:00,
2013-02-02 20:04:00,18.9,14.0,30.07,NNW,336,0.0,0.0,81,0.00,,,0.00,VWS V14.01,2013-02-03 01:04:00,
2013-02-02 20:05:00,18.9,14.0,30.08,NNW,336,0.0,0.0,81,0.00,,,0.00,VWS V14.01,2013-02-03 01:05:00,
2013-02-02 20:06:00,19.0,14.1,30.08,NNW,336,0.0,0.0,81,0.00,,,0.00,VWS V14.01,2013-02-03 01:06:00,
2013-02-02 20:09:00,18.9,14.0,30.08,NNW,336,0.0,0.0,81,0.00,,,0.00,VWS V14.01,2013-02-03 01:09:00,
2013-02-02 20:10:00,18.9,14.0,30.07,NNW,336,0.0,0.0,81,0.00,,,0.00,VWS V14.01,2013-02-03 01:10:00,
2013-02-02 20:11:00,18.9,14.0,30.08,NNW,336,0.0,0.0,81,0.00,,,0.00,VWS V14.01,2013-02-03 01:11:00,
2013-02-02 20:14:00,18.8,14.2,30.07,NNW,336,0.0,0.0,82,0.00,,,0.00,VWS V14.01,2013-02-03 01:14:00,
2013-02-02 20:15:00,18.8,14.2,30.08,NNW,336,0.0,0.0,82,0.00,,,0.00,VWS V14.01,2013-02-03 01:15:00,
2013-02-02 20:16:00,18.8,14.2,30.07,NNW,336,0.0,0.0,82,0.00,,,0.00,VWS V14.01,2013-02-03 01:16:00,
2013-02-02 20:19:00,18.7,14.1,30.07,NNW,336,0.0,2.0,82,0.00,,,0.00,VWS V14.01,2013-02-03 01:19:00,
2013-02-02 20:20:00,18.7,14.1,30.08,NNW,336,0.0,2.0,82,0.00,,,0.00,VWS V14.01,2013-02-03 01:20:00,
2013-02-02 20:21:00,18.7,14.1,30.07,NNW,336,0.0,0.0,82,0.00,,,0.00,VWS V14.01,2013-02-03 01:21:00,
2013-02-02 20:24:00,18.6,14.0,30.07,NNW,336,0.0,2.0,82,0.00,,,0.00,VWS V14.01,2013-02-03 01:24:00,
2013-02-02 20:25:00,18.6,14.0,30.07,NNW,336,0.0,2.0,82,0.00,,,0.00,VWS V14.01,2013-02-03 01:25:00,
2013-02-02 20:26:00,18.6,14.0,30.07,NNW,336,1.0,1.0,82,0.00,,,0.00,VWS V14.01,2013-02-03 01:26:00,
2013-02-02 20:29:00,18.5,14.2,30.08,NNW,336,2.0,3.0,83,0.00,,,0.00,VWS V14.01,2013-02-03 01:29:00,
2013-02-02 20:30:00,18.5,14.2,30.08,NNW,336,0.0,3.0,83,0.00,,,0.00,VWS V14.01,2013-02-03 01:30:00,
2013-02-02 20:31:00,18.5,14.2,30.08,NNW,336,0.0,0.0,83,0.00,,,0.00,VWS V14.01,2013-02-03 01:31:00,
2013-02-02 20:35:00,18.6,14.3,30.08,NNW,336,0.0,2.0,83,0.00,,,0.00,VWS V14.01,2013-02-03 01:35:00,
2013-02-02 20:36:00,18.6,14.3,30.08,NNW,336,2.0,2.0,83,0.00,,,0.00,VWS V14.01,2013-02-03 01:36:00,
2013-02-02 20:40:00,18.7,14.4,30.08,NNW,337,2.0,4.0,83,0.00,,,0.00,VWS V14.01,2013-02-03 01:40:00,
2013-02-02 20:41:00,18.7,14.4,30.08,NNW,337,0.0,0.0,83,0.00,,,0.00,VWS V14.01,2013-02-03 01:41:00,
2013-02-02 20:45:00,18.8,14.5,30.08,NNW,337,0.0,0.0,83,0.00,,,0.00,VWS V14.01,2013-02-03 01:45:00,
2013-02-02 20:46:00,18.8,14.5,30.08,NNW,337,1.0,1.0,83,0.00,,,0.00,VWS V14.01,2013-02-03 01:46:00,
2013-02-02 20:47:00,18.8,14.5,30.08,NNW,337,1.0,2.0,83,0.00,,,0.00,VWS V14.01,2013-02-03 01:47:00,
2013-02-02 20:50:00,18.7,14.4,30.08,NNW,337,0.0,3.0,83,0.00,,,0.00,VWS V14.01,2013-02-03 01:50:00,
2013-02-02 20:51:00,18.7,14.4,30.08,NNW,337,0.0,0.0,83,0.00,,,0.00,VWS V14.01,2013-02-03 01:51:00,
2013-02-02 20:52:00,18.7,14.4,30.08,NNW,337,0.0,0.0,83,0.00,,,0.00,VWS V14.01,2013-02-03 01:52:00,
2013-02-02 20:55:00,18.7,14.4,30.08,NW,314,4.0,4.0,83,0.00,,,0.00,VWS V14.01,2013-02-03 01:55:00,
2013-02-02 20:56:00,18.6,14.3,30.08,NNW,331,4.0,5.0,83,0.00,,,0.00,VWS V14.01,2013-02-03 01:56:00,
2013-02-02 20:57:00,18.6,14.3,30.08,NNW,330,2.0,5.0,83,0.00,,,0.00,VWS V14.01,2013-02-03 01:57:00,
2013-02-02 21:00:00,18.6,14.3,30.08,NNW,333,2.0,6.0,83,0.00,,,0.00,VWS V14.01,2013-02-03 02:00:00,
2013-02-02 21:01:00,18.5,14.2,30.08,WNW,288,3.0,5.0,83,0.00,,,0.00,VWS V14.01,2013-02-03 02:01:00,
2013-02-02 21:02:00,18.5,14.2,30.08,WNW,292,1.0,5.0,83,0.00,,,0.00,VWS V14.01,2013-02-03 02:02:00,
2013-02-02 21:05:00,18.5,14.5,30.08,NNW,333,4.0,5.0,84,0.00,,,0.00,VWS V14.01,2013-02-03 02:05:00,
2013-02-02 21:06:00,18.5,14.5,30.08,NNW,342,5.0,5.0,84,0.00,,,0.00,VWS V14.01,2013-02-03 02:06:00,
2013-02-02 21:07:00,18.5,14.5,30.08,NNW,342,4.0,5.0,84,0.00,,,0.00,VWS V14.01,2013-02-03 02:07:00,
2013-02-02 21:10:00,18.5,14.5,30.08,WNW,300,3.0,5.0,84,0.00,,,0.00,VWS V14.01,2013-02-03 02:10:00,
2013-02-02 21:11:00,18.5,14.5,30.08,WNW,300,3.0,4.0,84,0.00,,,0.00,VWS V14.01,2013-02-03 02:11:00,
2013-02-02 21:12:00,18.4,14.4,30.08,North,355,3.0,4.0,84,0.00,,,0.00,VWS V14.01,2013-02-03 02:12:00,
2013-02-02 21:15:00,18.5,14.5,30.08,NW,323,4.0,5.0,84,0.00,,,0.00,VWS V14.01,2013-02-03 02:15:00,
2013-02-02 21:16:00,18.5,14.5,30.08,NW,323,2.0,3.0,84,0.00,,,0.00,VWS V14.01,2013-02-03 02:16:00,
2013-02-02 21:17:00,18.5,14.5,30.08,NW,323,3.0,3.0,84,0.00,,,0.00,VWS V14.01,2013-02-03 02:17:00,
2013-02-02 21:20:00,18.5,14.5,30.08,North,355,3.0,7.0,84,0.00,,,0.00,VWS V14.01,2013-02-03 02:20:00,
2013-02-02 21:21:00,18.5,14.5,30.08,NW,319,4.0,5.0,84,0.00,,,0.00,VWS V14.01,2013-02-03 02:21:00,
2013-02-02 21:22:00,18.5,14.5,30.08,NW,322,3.0,5.0,84,0.00,,,0.00,VWS V14.01,2013-02-03 02:22:00,
2013-02-02 21:25:00,18.4,14.4,30.08,WNW,302,4.0,6.0,84,0.00,,,0.00,VWS V14.01,2013-02-03 02:25:00,
2013-02-02 21:26:00,18.4,14.4,30.08,NW,304,3.0,4.0,84,0.00,,,0.00,VWS V14.01,2013-02-03 02:26:00,
2013-02-02 21:27:00,18.4,14.4,30.08,NW,304,1.0,4.0,84,0.00,,,0.00,VWS V14.01,2013-02-03 02:27:00,
2013-02-02 21:30:00,18.3,14.6,30.07,North,5,3.0,5.0,85,0.00,,,0.00,VWS V14.01,2013-02-03 02:30:00,
2013-02-02 21:31:00,18.3,14.6,30.08,North,355,3.0,3.0,85,0.00,,,0.00,VWS V14.01,2013-02-03 02:31:00,
2013-02-02 21:32:00,18.3,14.6,30.07,North,355,2.0,3.0,85,0.00,,,0.00,VWS V14.01,2013-02-03 02:32:00,
2013-02-02 21:35:00,18.4,14.6,30.07,NNW,331,2.0,5.0,85,0.00,,,0.00,VWS V14.01,2013-02-03 02:35:00,
2013-02-02 21:36:00,18.4,14.6,30.07,NNW,331,2.0,2.0,85,0.00,,,0.00,VWS V14.01,2013-02-03 02:36:00,
2013-02-02 21:37:00,18.4,14.6,30.07,NNW,333,4.0,4.0,85,0.00,,,0.00,VWS V14.01,2013-02-03 02:37:00,
2013-02-02 21:40:00,18.3,14.3,30.07,NNW,331,3.0,4.0,84,0.00,,,0.00,VWS V14.01,2013-02-03 02:40:00,
2013-02-02 21:41:00,18.3,14.3,30.07,NNW,331,2.0,3.0,84,0.00,,,0.00,VWS V14.01,2013-02-03 02:41:00,
2013-02-02 21:42:00,18.3,14.3,30.07,NNW,331,2.0,3.0,84,0.00,,,0.00,VWS V14.01,2013-02-03 02:42:00,
2013-02-02 21:45:00,18.1,14.1,30.07,NNW,338,3.0,4.0,84,0.00,,,0.00,VWS V14.01,2013-02-03 02:45:00,
2013-02-02 21:46:00,18.1,14.1,30.07,NNW,338,3.0,3.0,84,0.00,,,0.00,VWS V14.01,2013-02-03 02:46:00,
2013-02-02 21:47:00,18.0,14.0,30.07,NNW,338,3.0,4.0,84,0.00,,,0.00,VWS V14.01,2013-02-03 02:47:00,
2013-02-02 21:48:00,18.0,14.0,30.07,NNW,338,3.0,4.0,84,0.00,,,0.00,VWS V14.01,2013-02-03 02:48:00,
2013-02-02 21:50:00,18.0,14.0,30.07,NNW,338,0.0,4.0,84,0.00,,,0.00,VWS V14.01,2013-02-03 02:50:00,
2013-02-02 21:51:00,18.0,14.0,30.07,NNW,338,0.0,4.0,84,0.00,,,0.00,VWS V14.01,2013-02-03 02:51:00,
2013-02-02 21:52:00,18.0,14.0,30.07,NNW,338,2.0,2.0,84,0.00,,,0.00,VWS V14.01,2013-02-03 02:52:00,
2013-02-02 21:53:00,18.0,14.0,30.07,NNW,338,1.0,2.0,84,0.00,,,0.00,VWS V14.01,2013-02-03 02:53:00,
2013-02-02 21:55:00,17.9,13.9,30.07,NNW,338,1.0,2.0,84,0.00,,,0.00,VWS V14.01,2013-02-03 02:55:00,
2013-02-02 21:56:00,17.9,13.9,30.07,NNW,338,1.0,2.0,84,0.00,,,0.00,VWS V14.01,2013-02-03 02:56:00,
2013-02-02 21:57:00,17.9,13.9,30.07,NNW,338,3.0,3.0,84,0.00,,,0.00,VWS V14.01,2013-02-03 02:57:00,
2013-02-02 21:58:00,17.8,13.8,30.07,NNW,337,2.0,4.0,84,0.00,,,0.00,VWS V14.01,2013-02-03 02:58:00,
2013-02-02 22:00:00,17.7,13.7,30.07,NNW,338,3.0,4.0,84,0.00,,,0.00,VWS V14.01,2013-02-03 03:00:00,
2013-02-02 22:01:00,17.7,13.7,30.07,NNW,338,3.0,4.0,84,0.00,,,0.00,VWS V14.01,2013-02-03 03:01:00,
2013-02-02 22:02:00,17.6,13.6,30.07,NNW,337,2.0,3.0,84,0.00,,,0.00,VWS V14.01,2013-02-03 03:02:00,
2013-02-02 22:03:00,17.6,13.9,30.07,NNW,338,2.0,3.0,85,0.00,,,0.00,VWS V14.01,2013-02-03 03:03:00,
2013-02-02 22:05:00,17.5,13.5,30.07,NNW,337,1.0,3.0,84,0.00,,,0.00,VWS V14.01,2013-02-03 03:05:00,
2013-02-02 22:06:00,17.5,13.5,30.07,NNW,338,1.0,3.0,84,0.00,,,0.00,VWS V14.01,2013-02-03 03:06:00,
2013-02-02 22:07:00,17.4,13.7,30.07,NNW,338,2.0,3.0,85,0.00,,,0.00,VWS V14.01,2013-02-03 03:07:00,
2013-02-02 22:08:00,17.4,13.7,30.07,NNW,338,2.0,3.0,85,0.00,,,0.00,VWS V14.01,2013-02-03 03:08:00,
2013-02-02 22:10:00,17.4,13.7,30.07,NNW,338,2.0,4.0,85,0.00,,,0.00,VWS V14.01,2013-02-03 03:10:00,
2013-02-02 22:15:00,17.2,13.5,30.07,NNW,338,2.0,4.0,85,0.00,,,0.00,VWS V14.01,2013-02-03 03:15:00,
2013-02-02 22:20:00,17.1,13.4,30.08,NNW,338,2.0,3.0,85,0.00,,,0.00,VWS V14.01,2013-02-03 03:20:00,
2013-02-02 22:25:00,17.0,13.3,30.07,NW,315,2.0,4.0,85,0.00,,,0.00,VWS V14.01,2013-02-03 03:25:00,
2013-02-02 22:30:00,16.8,13.1,30.07,NW,315,2.0,3.0,85,0.00,,,0.00,VWS V14.01,2013-02-03 03:30:00,
2013-02-02 22:35:00,16.6,12.9,30.07,NW,315,2.0,4.0,85,0.00,,,0.00,VWS V14.01,2013-02-03 03:35:00,
2013-02-02 22:40:00,16.5,12.8,30.07,NW,315,2.0,3.0,85,0.00,,,0.00,VWS V14.01,2013-02-03 03:40:00,
2013-02-02 22:45:00,16.4,12.9,30.07,NW,315,2.0,4.0,86,0.00,,,0.00,VWS V14.01,2013-02-03 03:45:00,
2013-02-02 22:50:00,16.4,12.9,30.07,NW,315,2.0,3.0,86,0.00,,,0.00,VWS V14.01,2013-02-03 03:50:00,
2013-02-02 22:55:00,16.4,12.9,30.08,NW,315,2.0,4.0,86,0.00,,,0.00,VWS V14.01,2013-02-03 03:55:00,
2013-02-02 23:00:00,16.3,12.9,30.07,NW,315,2.0,4.0,86,0.00,,,0.00,VWS V14.01,2013-02-03 04:00:00,
2013-02-02 23:05:00,16.4,12.9,30.08,NW,315,1.0,2.0,86,0.00,,,0.00,VWS V14.01,2013-02-03 04:05:00,
2013-02-02 23:10:00,16.4,12.9,30.08,NW,315,1.0,4.0,86,0.00,,,0.00,VWS V14.01,2013-02-03 04:10:00,
2013-02-02 23:15:00,16.5,13.1,30.08,NNW,338,2.0,6.0,86,0.00,,,0.00,VWS V14.01,2013-02-03 04:15:00,
2013-02-02 23:20:00,16.7,13.2,30.08,NNW,338,2.0,4.0,86,0.00,,,0.00,VWS V14.01,2013-02-03 04:20:00,
2013-02-02 23:25:00,16.7,13.2,30.08,North,0,3.0,5.0,86,0.00,,,0.00,VWS V14.01,2013-02-03 04:25:00,
2013-02-02 23:30:00,16.8,13.1,30.08,North,0,2.0,5.0,85,0.00,,,0.00,VWS V14.01,2013-02-03 04:30:00,
2013-02-02 23:35:00,16.8,13.1,30.08,NNW,338,2.0,5.0,85,0.00,,,0.00,VWS V14.01,2013-02-03 04:35:00,
2013-02-02 23:40:00,16.7,13.0,30.08,NNW,338,2.0,3.0,85,0.00,,,0.00,VWS V14.01,2013-02-03 04:40:00,
2013-02-02 23:45:00,16.5,12.8,30.08,WNW,292,3.0,6.0,85,0.00,,,0.00,VWS V14.01,2013-02-03 04:45:00,
2013-02-02 23:50:00,16.6,12.9,30.08,NW,315,3.0,5.0,85,0.00,,,0.00,VWS V14.01,2013-02-03 04:50:00,
2013-02-02 23:55:00,16.6,12.9,30.08,North,0,3.0,5.0,85,0.00,,,0.00,VWS V14.01,2013-02-03 04:55:00,